Time,TemperatureF,DewpointF,PressureIn,WindDirection,WindDirectionDegrees,WindSpeedMPH,WindSpeedGustMPH,Humidity,HourlyPrecipIn,Conditions,Clouds,dailyrainin,SoftwareType,DateUTC
2013-01-22 00:00:00,22.9,15.3,29.81,WSW,248,1.8,3.4,72,0.00,,,0.00,WUHU216HW,2013-01-22 05:00:00,
2013-01-22 00:01:00,23.1,15.5,29.81,West,270,13.4,13.4,72,0.00,,,0.00,WUHU216HW,2013-01-22 05:01:00,
2013-01-22 00:05:00,23.3,15.3,29.81,WNW,293,5.1,13.4,71,0.00,,,0.00,WUHU216HW,2013-01-22 05:05:00,
2013-01-22 00:06:00,23.3,15.3,29.81,WNW,293,5.1,13.4,71,0.00,,,0.00,WUHU216HW,2013-01-22 05:06:00,
2013-01-22 00:10:00,23.5,14.9,29.81,NNW,338,5.4,9.6,69,0.00,,,0.00,WUHU216HW,2013-01-22 05:10:00,
2013-01-22 00:11:00,23.5,14.9,29.81,NNW,338,5.4,9.6,69,0.00,,,0.00,WUHU216HW,2013-01-22 05:11:00,
2013-01-22 00:12:00,23.5,14.9,29.81,West,270,4.5,9.6,69,0.00,,,0.00,WUHU216HW,2013-01-22 05:12:00,
2013-01-22 00:16:00,23.5,14.2,29.81,WSW,248,4.7,9.2,67,0.00,,,0.00,WUHU216HW,2013-01-22 05:16:00,
2013-01-22 00:17:00,23.5,13.9,29.81,North,0,5.1,9.2,66,0.00,,,0.00,WUHU216HW,2013-01-22 05:17:00,
2013-01-22 00:21:00,23.5,13.9,29.80,West,270,4.7,9.2,66,0.00,,,0.00,WUHU216HW,2013-01-22 05:21:00,
2013-01-22 00:22:00,23.3,13.7,29.80,North,0,2.0,5.6,66,0.00,,,0.00,WUHU216HW,2013-01-22 05:22:00,
2013-01-22 00:26:00,23.3,13.7,29.80,NNW,338,7.6,7.6,66,0.00,,,0.00,WUHU216HW,2013-01-22 05:26:00,
2013-01-22 00:27:00,23.1,13.1,29.80,NNW,338,5.6,7.8,65,0.00,,,0.00,WUHU216HW,2013-01-22 05:27:00,
2013-01-22 00:31:00,23.1,13.1,29.80,North,0,1.8,7.8,65,0.00,,,0.00,WUHU216HW,2013-01-22 05:31:00,
2013-01-22 00:32:00,23.1,13.1,29.80,WNW,293,2.9,7.8,65,0.00,,,0.00,WUHU216HW,2013-01-22 05:32:00,
2013-01-22 00:36:00,22.9,12.9,29.80,WNW,293,1.8,5.6,65,0.00,,,0.00,WUHU216HW,2013-01-22 05:36:00,
2013-01-22 00:37:00,22.9,12.9,29.80,NNW,338,6.3,6.3,65,0.00,,,0.00,WUHU216HW,2013-01-22 05:37:00,
2013-01-22 00:41:00,22.8,12.5,29.80,NW,315,2.0,6.3,64,0.00,,,0.00,WUHU216HW,2013-01-22 05:41:00,
2013-01-22 00:43:00,22.8,12.5,29.80,NNW,338,3.1,6.3,64,0.00,,,0.00,WUHU216HW,2013-01-22 05:43:00,
2013-01-22 00:46:00,22.8,12.5,29.80,WNW,293,4.7,12.1,64,0.00,,,0.00,WUHU216HW,2013-01-22 05:46:00,
2013-01-22 00:48:00,22.8,11.8,29.80,WNW,293,5.8,12.1,62,0.00,,,0.00,WUHU216HW,2013-01-22 05:48:00,
2013-01-22 00:51:00,22.8,11.8,29.81,WNW,293,4.0,12.1,62,0.00,,,0.00,WUHU216HW,2013-01-22 05:51:00,
2013-01-22 00:53:00,22.6,11.6,29.81,WNW,293,5.1,12.1,62,0.00,,,0.00,WUHU216HW,2013-01-22 05:53:00,
2013-01-22 00:56:00,22.6,11.6,29.81,North,0,6.9,8.7,62,0.00,,,0.00,WUHU216HW,2013-01-22 05:56:00,
2013-01-22 00:57:00,22.6,11.6,29.80,WNW,293,6.5,7.6,62,0.00,,,0.00,WUHU216HW,2013-01-22 05:57:00,
2013-01-22 00:58:00,22.6,11.6,29.80,NNW,338,5.4,7.6,62,0.00,,,0.00,WUHU216HW,2013-01-22 05:58:00,
2013-01-22 01:01:00,22.6,11.6,29.81,West,270,3.4,6.9,62,0.00,,,0.00,WUHU216HW,2013-01-22 06:01:00,
2013-01-22 01:02:00,22.6,11.6,29.81,North,0,4.9,6.9,62,0.00,,,0.00,WUHU216HW,2013-01-22 06:02:00,
2013-01-22 01:03:00,22.4,11.4,29.81,NNW,338,6.9,6.9,62,0.00,,,0.00,WUHU216HW,2013-01-22 06:03:00,
2013-01-22 01:06:00,22.4,11.0,29.81,North,0,1.8,6.9,61,0.00,,,0.00,WUHU216HW,2013-01-22 06:06:00,
2013-01-22 01:07:00,22.4,11.0,29.81,North,0,1.8,6.9,61,0.00,,,0.00,WUHU216HW,2013-01-22 06:07:00,
2013-01-22 01:08:00,22.4,11.4,29.81,WNW,293,1.8,6.9,62,0.00,,,0.00,WUHU216HW,2013-01-22 06:08:00,
2013-01-22 01:11:00,22.4,11.0,29.81,NNW,338,4.9,6.9,61,0.00,,,0.00,WUHU216HW,2013-01-22 06:11:00,
2013-01-22 01:12:00,22.2,10.8,29.81,NNW,338,0.9,6.9,61,0.00,,,0.00,WUHU216HW,2013-01-22 06:12:00,
2013-01-22 01:13:00,22.2,10.8,29.81,NW,315,4.7,4.9,61,0.00,,,0.00,WUHU216HW,2013-01-22 06:13:00,
2013-01-22 01:17:00,22.2,10.8,29.81,WNW,293,7.4,7.4,61,0.00,,,0.00,WUHU216HW,2013-01-22 06:17:00,
2013-01-22 01:18:00,22.2,10.1,29.81,WNW,293,3.8,7.4,59,0.00,,,0.00,WUHU216HW,2013-01-22 06:18:00,
2013-01-22 01:22:00,22.2,10.5,29.81,NNW,338,3.8,7.4,60,0.00,,,0.00,WUHU216HW,2013-01-22 06:22:00,
2013-01-22 01:23:00,22.2,10.8,29.82,NW,315,6.0,7.4,61,0.00,,,0.00,WUHU216HW,2013-01-22 06:23:00,
2013-01-22 01:24:00,22.2,10.5,29.82,NW,315,3.4,7.4,60,0.00,,,0.00,WUHU216HW,2013-01-22 06:24:00,
2013-01-22 01:27:00,22.0,9.9,29.82,WSW,248,4.3,9.8,59,0.00,,,0.00,WUHU216HW,2013-01-22 06:27:00,
2013-01-22 01:28:00,22.0,9.9,29.82,West,270,1.8,9.8,59,0.00,,,0.00,WUHU216HW,2013-01-22 06:28:00,
2013-01-22 01:29:00,22.0,9.9,29.82,NW,315,5.8,9.8,59,0.00,,,0.00,WUHU216HW,2013-01-22 06:29:00,
2013-01-22 01:32:00,22.0,9.9,29.82,NNW,338,3.6,9.8,59,0.00,,,0.00,WUHU216HW,2013-01-22 06:32:00,
2013-01-22 01:33:00,22.0,9.9,29.82,NNW,338,4.7,9.8,59,0.00,,,0.00,WUHU216HW,2013-01-22 06:33:00,
2013-01-22 01:34:00,22.0,9.9,29.82,NNW,338,5.4,9.8,59,0.00,,,0.00,WUHU216HW,2013-01-22 06:34:00,
2013-01-22 01:37:00,22.0,9.9,29.82,NW,315,3.8,5.8,59,0.00,,,0.00,WUHU216HW,2013-01-22 06:37:00,
2013-01-22 01:38:00,22.0,9.9,29.82,NW,315,1.1,5.4,59,0.00,,,0.00,WUHU216HW,2013-01-22 06:38:00,
2013-01-22 01:39:00,22.0,9.9,29.82,NW,315,1.1,5.4,59,0.00,,,0.00,WUHU216HW,2013-01-22 06:39:00,
2013-01-22 01:42:00,21.9,9.8,29.82,WSW,248,7.2,7.2,59,0.00,,,0.00,WUHU216HW,2013-01-22 06:42:00,
2013-01-22 01:43:00,21.7,9.6,29.82,WNW,293,4.9,9.2,59,0.00,,,0.00,WUHU216HW,2013-01-22 06:43:00,
2013-01-22 01:44:00,21.7,9.6,29.82,WNW,293,4.9,9.2,59,0.00,,,0.00,WUHU216HW,2013-01-22 06:44:00,
2013-01-22 01:47:00,21.7,9.2,29.82,WNW,293,2.7,9.2,58,0.00,,,0.00,WUHU216HW,2013-01-22 06:47:00,
2013-01-22 01:49:00,21.7,9.6,29.83,North,0,3.8,9.2,59,0.00,,,0.00,WUHU216HW,2013-01-22 06:49:00,
2013-01-22 01:52:00,21.7,9.2,29.83,WNW,293,2.5,9.2,58,0.00,,,0.00,WUHU216HW,2013-01-22 06:52:00,
2013-01-22 01:54:00,21.7,9.2,29.83,WNW,293,1.8,6.9,58,0.00,,,0.00,WUHU216HW,2013-01-22 06:54:00,
2013-01-22 01:57:00,21.7,8.8,29.83,North,0,4.0,8.5,57,0.00,,,0.00,WUHU216HW,2013-01-22 06:57:00,
2013-01-22 01:58:00,21.7,9.2,29.83,North,0,4.7,8.5,58,0.00,,,0.00,WUHU216HW,2013-01-22 06:58:00,
2013-01-22 01:59:00,21.7,8.8,29.83,WNW,293,4.0,8.5,57,0.00,,,0.00,WUHU216HW,2013-01-22 06:59:00,
2013-01-22 02:02:00,21.7,8.8,29.83,WSW,248,4.7,8.5,57,0.00,,,0.00,WUHU216HW,2013-01-22 07:02:00,
2013-01-22 02:03:00,21.7,8.8,29.83,WSW,248,4.7,8.5,57,0.00,,,0.00,WUHU216HW,2013-01-22 07:03:00,
2013-01-22 02:04:00,21.7,8.8,29.83,West,270,3.6,8.5,57,0.00,,,0.00,WUHU216HW,2013-01-22 07:04:00,
2013-01-22 02:07:00,21.5,8.6,29.83,West,270,10.5,10.5,57,0.00,,,0.00,WUHU216HW,2013-01-22 07:07:00,
2013-01-22 02:08:00,21.5,8.6,29.83,NW,315,5.1,10.5,57,0.00,,,0.00,WUHU216HW,2013-01-22 07:08:00,
2013-01-22 02:09:00,21.5,8.2,29.83,WNW,293,4.7,10.5,56,0.00,,,0.00,WUHU216HW,2013-01-22 07:09:00,
2013-01-22 02:12:00,21.3,8.0,29.83,SW,225,2.5,10.5,56,0.00,,,0.00,WUHU216HW,2013-01-22 07:12:00,
2013-01-22 02:13:00,21.3,8.4,29.83,North,0,2.5,10.5,57,0.00,,,0.00,WUHU216HW,2013-01-22 07:13:00,
2013-01-22 02:14:00,21.3,8.4,29.83,WNW,293,2.5,10.5,57,0.00,,,0.00,WUHU216HW,2013-01-22 07:14:00,
2013-01-22 02:15:00,21.3,8.4,29.83,WNW,293,2.5,10.5,57,0.00,,,0.00,WUHU216HW,2013-01-22 07:15:00,
2013-01-22 02:17:00,21.3,8.4,29.83,SW,225,4.0,5.1,57,0.00,,,0.00,WUHU216HW,2013-01-22 07:17:00,
2013-01-22 02:18:00,21.1,8.2,29.83,NNW,338,0.9,4.7,57,0.00,,,0.00,WUHU216HW,2013-01-22 07:18:00,
2013-01-22 02:19:00,21.1,8.2,29.83,WNW,293,2.5,4.0,57,0.00,,,0.00,WUHU216HW,2013-01-22 07:19:00,
2013-01-22 02:20:00,21.1,8.2,29.83,WNW,293,2.5,4.0,57,0.00,,,0.00,WUHU216HW,2013-01-22 07:20:00,
2013-01-22 02:22:00,21.0,7.8,29.84,WNW,293,4.9,7.6,56,0.00,,,0.00,WUHU216HW,2013-01-22 07:22:00,
2013-01-22 02:23:00,21.0,7.8,29.84,WNW,293,4.0,7.6,56,0.00,,,0.00,WUHU216HW,2013-01-22 07:23:00,
2013-01-22 02:24:00,21.0,8.2,29.84,NW,315,7.6,7.6,57,0.00,,,0.00,WUHU216HW,2013-01-22 07:24:00,
2013-01-22 02:25:00,21.0,8.2,29.84,NW,315,7.6,7.6,57,0.00,,,0.00,WUHU216HW,2013-01-22 07:25:00,
2013-01-22 02:28:00,21.0,7.8,29.84,WSW,248,10.3,10.3,56,0.00,,,0.00,WUHU216HW,2013-01-22 07:28:00,
2013-01-22 02:29:00,21.0,7.3,29.84,West,270,7.4,10.3,55,0.00,,,0.00,WUHU216HW,2013-01-22 07:29:00,
2013-01-22 02:30:00,21.0,7.3,29.84,NW,315,6.5,10.3,55,0.00,,,0.00,WUHU216HW,2013-01-22 07:30:00,
2013-01-22 02:32:00,21.1,7.4,29.84,North,0,2.5,10.3,55,0.00,,,0.00,WUHU216HW,2013-01-22 07:32:00,
2013-01-22 02:34:00,21.0,7.8,29.84,NW,315,4.7,10.3,56,0.00,,,0.00,WUHU216HW,2013-01-22 07:34:00,
2013-01-22 02:35:00,21.0,7.8,29.84,NNW,338,5.8,10.3,56,0.00,,,0.00,WUHU216HW,2013-01-22 07:35:00,
2013-01-22 02:38:00,21.0,7.8,29.84,WNW,293,4.3,7.4,56,0.00,,,0.00,WUHU216HW,2013-01-22 07:38:00,
2013-01-22 02:39:00,21.0,7.8,29.84,WNW,293,6.5,6.5,56,0.00,,,0.00,WUHU216HW,2013-01-22 07:39:00,
2013-01-22 02:40:00,21.0,7.8,29.84,WSW,248,3.4,6.5,56,0.00,,,0.00,WUHU216HW,2013-01-22 07:40:00,
2013-01-22 02:44:00,21.0,7.8,29.84,WSW,248,5.4,6.5,56,0.00,,,0.00,WUHU216HW,2013-01-22 07:44:00,
2013-01-22 02:45:00,20.8,7.6,29.84,WNW,293,3.4,6.5,56,0.00,,,0.00,WUHU216HW,2013-01-22 07:45:00,
2013-01-22 02:49:00,20.6,7.4,29.84,WNW,293,5.6,5.6,56,0.00,,,0.00,WUHU216HW,2013-01-22 07:49:00,
2013-01-22 02:50:00,20.6,7.4,29.84,WNW,293,4.7,5.6,56,0.00,,,0.00,WUHU216HW,2013-01-22 07:50:00,
2013-01-22 02:51:00,20.6,7.4,29.84,North,0,1.3,5.6,56,0.00,,,0.00,WUHU216HW,2013-01-22 07:51:00,
2013-01-22 02:54:00,20.6,7.4,29.84,North,0,1.1,5.6,56,0.00,,,0.00,WUHU216HW,2013-01-22 07:54:00,
2013-01-22 02:55:00,20.6,7.4,29.84,WSW,248,2.7,5.6,56,0.00,,,0.00,WUHU216HW,2013-01-22 07:55:00,
2013-01-22 02:56:00,20.6,7.4,29.84,NNW,338,2.7,5.6,56,0.00,,,0.00,WUHU216HW,2013-01-22 07:56:00,
2013-01-22 02:59:00,20.6,7.4,29.84,West,270,6.3,6.3,56,0.00,,,0.00,WUHU216HW,2013-01-22 07:59:00,
2013-01-22 03:00:00,20.4,7.2,29.84,West,270,7.2,7.2,56,0.00,,,0.00,WUHU216HW,2013-01-22 08:00:00,
2013-01-22 03:01:00,20.4,6.8,29.84,West,270,4.0,7.2,55,0.00,,,0.00,WUHU216HW,2013-01-22 08:01:00,
2013-01-22 03:05:00,20.4,6.8,29.84,West,270,6.7,7.2,55,0.00,,,0.00,WUHU216HW,2013-01-22 08:05:00,
2013-01-22 03:06:00,20.4,6.8,29.84,NNW,338,6.3,7.2,55,0.00,,,0.00,WUHU216HW,2013-01-22 08:06:00,
2013-01-22 03:09:00,20.4,6.8,29.84,WNW,293,4.0,7.2,55,0.00,,,0.00,WUHU216HW,2013-01-22 08:09:00,
2013-01-22 03:10:00,20.4,6.8,29.84,WNW,293,4.0,7.2,55,0.00,,,0.00,WUHU216HW,2013-01-22 08:10:00,
2013-01-22 03:11:00,20.4,6.8,29.84,West,270,4.0,6.7,55,0.00,,,0.00,WUHU216HW,2013-01-22 08:11:00,
2013-01-22 03:15:00,20.4,6.8,29.84,WNW,293,3.6,6.3,55,0.00,,,0.00,WUHU216HW,2013-01-22 08:15:00,
2013-01-22 03:16:00,20.4,6.8,29.84,North,0,4.7,6.3,55,0.00,,,0.00,WUHU216HW,2013-01-22 08:16:00,
2013-01-22 03:20:00,20.2,6.6,29.84,NNW,338,1.3,4.7,55,0.00,,,0.00,WUHU216HW,2013-01-22 08:20:00,
2013-01-22 03:21:00,20.2,6.6,29.84,NW,315,4.5,4.7,55,0.00,,,0.00,WUHU216HW,2013-01-22 08:21:00,
2013-01-22 03:25:00,20.2,6.6,29.84,WNW,293,4.7,4.7,55,0.00,,,0.00,WUHU216HW,2013-01-22 08:25:00,
2013-01-22 03:26:00,20.2,6.6,29.84,WNW,293,2.2,4.7,55,0.00,,,0.00,WUHU216HW,2013-01-22 08:26:00,
2013-01-22 03:30:00,20.1,6.5,29.84,WNW,293,2.9,9.8,55,0.00,,,0.00,WUHU216HW,2013-01-22 08:30:00,
2013-01-22 03:31:00,20.1,6.5,29.84,WNW,293,2.9,9.8,55,0.00,,,0.00,WUHU216HW,2013-01-22 08:31:00,
2013-01-22 03:32:00,20.1,6.5,29.84,WNW,293,4.0,9.8,55,0.00,,,0.00,WUHU216HW,2013-01-22 08:32:00,
2013-01-22 03:35:00,20.1,6.5,29.85,NNW,338,11.4,11.4,55,0.00,,,0.00,WUHU216HW,2013-01-22 08:35:00,
2013-01-22 03:36:00,20.1,6.5,29.85,NNW,338,11.4,11.4,55,0.00,,,0.00,WUHU216HW,2013-01-22 08:36:00,
2013-01-22 03:37:00,20.1,6.5,29.84,WNW,293,8.1,11.4,55,0.00,,,0.00,WUHU216HW,2013-01-22 08:37:00,
2013-01-22 03:40:00,20.1,6.5,29.85,North,0,4.9,11.4,55,0.00,,,0.00,WUHU216HW,2013-01-22 08:40:00,
2013-01-22 03:41:00,20.1,6.5,29.85,North,0,4.9,11.4,55,0.00,,,0.00,WUHU216HW,2013-01-22 08:41:00,
2013-01-22 03:42:00,20.1,6.5,29.85,WNW,293,7.4,11.4,55,0.00,,,0.00,WUHU216HW,2013-01-22 08:42:00,
2013-01-22 03:45:00,20.1,6.5,29.85,NNW,338,4.0,8.1,55,0.00,,,0.00,WUHU216HW,2013-01-22 08:45:00,
2013-01-22 03:46:00,20.1,6.5,29.85,NNW,338,4.0,8.1,55,0.00,,,0.00,WUHU216HW,2013-01-22 08:46:00,
2013-01-22 03:47:00,20.1,6.5,29.84,West,270,5.6,7.4,55,0.00,,,0.00,WUHU216HW,2013-01-22 08:47:00,
2013-01-22 03:51:00,20.1,6.5,29.85,NNW,338,4.0,7.4,55,0.00,,,0.00,WUHU216HW,2013-01-22 08:51:00,
2013-01-22 03:52:00,20.1,6.5,29.85,NNW,338,5.4,6.3,55,0.00,,,0.00,WUHU216HW,2013-01-22 08:52:00,
2013-01-22 03:56:00,19.9,6.7,29.85,NNW,338,2.5,6.3,56,0.00,,,0.00,WUHU216HW,2013-01-22 08:56:00,
2013-01-22 03:57:00,19.9,6.3,29.85,NW,315,3.4,6.3,55,0.00,,,0.00,WUHU216HW,2013-01-22 08:57:00,
2013-01-22 04:01:00,19.7,6.1,29.85,NNW,338,3.8,8.5,55,0.00,,,0.00,WUHU216HW,2013-01-22 09:01:00,
2013-01-22 04:02:00,19.7,6.1,29.85,NNW,338,3.8,8.5,55,0.00,,,0.00,WUHU216HW,2013-01-22 09:02:00,
2013-01-22 04:03:00,19.7,6.5,29.85,NNW,338,8.5,8.5,56,0.00,,,0.00,WUHU216HW,2013-01-22 09:03:00,
2013-01-22 04:06:00,19.7,6.5,29.85,NNW,338,8.3,8.5,56,0.00,,,0.00,WUHU216HW,2013-01-22 09:06:00,
2013-01-22 04:07:00,19.7,6.5,29.85,NW,315,8.1,8.5,56,0.00,,,0.00,WUHU216HW,2013-01-22 09:07:00,
2013-01-22 04:08:00,19.7,6.5,29.85,NW,315,3.4,8.5,56,0.00,,,0.00,WUHU216HW,2013-01-22 09:08:00,
2013-01-22 04:11:00,19.7,6.5,29.85,West,270,4.5,8.5,56,0.00,,,0.00,WUHU216HW,2013-01-22 09:11:00,
2013-01-22 04:12:00,19.7,6.5,29.85,WNW,293,3.6,8.5,56,0.00,,,0.00,WUHU216HW,2013-01-22 09:12:00,
2013-01-22 04:13:00,19.7,6.5,29.85,WNW,293,3.6,8.5,56,0.00,,,0.00,WUHU216HW,2013-01-22 09:13:00,
2013-01-22 04:16:00,19.5,6.3,29.85,WNW,293,4.0,8.1,56,0.00,,,0.00,WUHU216HW,2013-01-22 09:16:00,
2013-01-22 04:17:00,19.5,6.3,29.86,WNW,293,6.9,6.9,56,0.00,,,0.00,WUHU216HW,2013-01-22 09:17:00,
2013-01-22 04:18:00,19.5,6.3,29.86,WNW,293,6.9,6.9,56,0.00,,,0.00,WUHU216HW,2013-01-22 09:18:00,
2013-01-22 04:21:00,19.5,6.3,29.86,SW,225,10.1,10.1,56,0.00,,,0.00,WUHU216HW,2013-01-22 09:21:00,
2013-01-22 04:22:00,19.5,6.3,29.86,NW,315,4.9,10.1,56,0.00,,,0.00,WUHU216HW,2013-01-22 09:22:00,
2013-01-22 04:23:00,19.5,6.3,29.86,NW,315,4.9,10.1,56,0.00,,,0.00,WUHU216HW,2013-01-22 09:23:00,
2013-01-22 04:27:00,19.5,6.3,29.86,North,0,3.1,10.1,56,0.00,,,0.00,WUHU216HW,2013-01-22 09:27:00,
2013-01-22 04:28:00,19.5,6.3,29.86,West,270,4.7,10.1,56,0.00,,,0.00,WUHU216HW,2013-01-22 09:28:00,
2013-01-22 04:32:00,19.3,6.6,29.86,North,0,6.3,7.8,57,0.00,,,0.00,WUHU216HW,2013-01-22 09:32:00,
2013-01-22 04:33:00,19.3,6.6,29.86,WNW,293,2.5,7.8,57,0.00,,,0.00,WUHU216HW,2013-01-22 09:33:00,
2013-01-22 04:34:00,19.3,6.6,29.87,NNW,338,4.3,6.3,57,0.00,,,0.00,WUHU216HW,2013-01-22 09:34:00,
2013-01-22 04:37:00,19.3,6.6,29.87,WNW,293,5.4,6.3,57,0.00,,,0.00,WUHU216HW,2013-01-22 09:37:00,
2013-01-22 04:38:00,19.2,6.5,29.87,WSW,248,12.3,12.3,57,0.00,,,0.00,WUHU216HW,2013-01-22 09:38:00,
2013-01-22 04:39:00,19.2,6.5,29.87,NNW,338,6.0,12.3,57,0.00,,,0.00,WUHU216HW,2013-01-22 09:39:00,
2013-01-22 04:42:00,19.2,6.9,29.87,WSW,248,5.6,12.3,58,0.00,,,0.00,WUHU216HW,2013-01-22 09:42:00,
2013-01-22 04:43:00,19.2,6.9,29.87,West,270,7.6,12.3,58,0.00,,,0.00,WUHU216HW,2013-01-22 09:43:00,
2013-01-22 04:44:00,19.2,6.9,29.87,NNW,338,3.4,12.3,58,0.00,,,0.00,WUHU216HW,2013-01-22 09:44:00,
2013-01-22 04:47:00,19.2,6.9,29.87,WNW,293,5.4,12.3,58,0.00,,,0.00,WUHU216HW,2013-01-22 09:47:00,
2013-01-22 04:48:00,19.2,6.9,29.87,NW,315,7.6,8.7,58,0.00,,,0.00,WUHU216HW,2013-01-22 09:48:00,
2013-01-22 04:49:00,19.0,6.7,29.87,NNW,338,11.2,11.2,58,0.00,,,0.00,WUHU216HW,2013-01-22 09:49:00,
2013-01-22 04:52:00,19.0,6.7,29.88,NW,315,2.5,11.2,58,0.00,,,0.00,WUHU216HW,2013-01-22 09:52:00,
2013-01-22 04:53:00,19.0,6.7,29.88,NNW,338,2.5,11.2,58,0.00,,,0.00,WUHU216HW,2013-01-22 09:53:00,
2013-01-22 04:54:00,19.0,6.7,29.88,NNW,338,2.9,11.2,58,0.00,,,0.00,WUHU216HW,2013-01-22 09:54:00,
2013-01-22 04:57:00,18.8,6.5,29.88,NW,315,4.7,11.2,58,0.00,,,0.00,WUHU216HW,2013-01-22 09:57:00,
2013-01-22 04:58:00,18.8,6.5,29.88,NW,315,3.6,11.2,58,0.00,,,0.00,WUHU216HW,2013-01-22 09:58:00,
2013-01-22 04:59:00,18.8,6.9,29.88,North,0,2.0,5.8,59,0.00,,,0.00,WUHU216HW,2013-01-22 09:59:00,
2013-01-22 05:03:00,18.8,6.9,29.89,WNW,293,3.4,4.7,59,0.00,,,0.00,WUHU216HW,2013-01-22 10:03:00,
2013-01-22 05:04:00,18.8,6.9,29.89,WNW,293,3.6,4.7,59,0.00,,,0.00,WUHU216HW,2013-01-22 10:04:00,
2013-01-22 05:08:00,18.8,6.9,29.89,NW,315,6.0,6.0,59,0.00,,,0.00,WUHU216HW,2013-01-22 10:08:00,
2013-01-22 05:09:00,18.8,6.9,29.89,NNW,338,3.8,6.0,59,0.00,,,0.00,WUHU216HW,2013-01-22 10:09:00,
2013-01-22 05:13:00,18.8,7.2,29.89,WNW,293,3.4,6.0,60,0.00,,,0.00,WUHU216HW,2013-01-22 10:13:00,
2013-01-22 05:14:00,18.8,7.2,29.89,West,270,5.4,6.0,60,0.00,,,0.00,WUHU216HW,2013-01-22 10:14:00,
2013-01-22 05:18:00,18.8,7.2,29.89,NW,315,5.6,11.2,60,0.00,,,0.00,WUHU216HW,2013-01-22 10:18:00,
2013-01-22 05:19:00,18.6,7.0,29.89,NNE,23,6.7,11.2,60,0.00,,,0.00,WUHU216HW,2013-01-22 10:19:00,
2013-01-22 05:20:00,18.8,7.2,29.89,North,0,8.3,11.2,60,0.00,,,0.00,WUHU216HW,2013-01-22 10:20:00,
2013-01-22 05:23:00,18.6,7.0,29.90,North,0,2.9,11.2,60,0.00,,,0.00,WUHU216HW,2013-01-22 10:23:00,
2013-01-22 05:24:00,18.6,7.0,29.90,North,0,3.4,11.2,60,0.00,,,0.00,WUHU216HW,2013-01-22 10:24:00,
2013-01-22 05:26:00,18.6,7.0,29.90,NNW,338,2.5,9.2,60,0.00,,,0.00,WUHU216HW,2013-01-22 10:26:00,
2013-01-22 05:28:00,18.6,7.0,29.90,WNW,293,2.5,8.3,60,0.00,,,0.00,WUHU216HW,2013-01-22 10:28:00,
2013-01-22 05:29:00,18.6,7.0,29.90,WNW,293,4.3,8.3,60,0.00,,,0.00,WUHU216HW,2013-01-22 10:29:00,
2013-01-22 05:31:00,18.6,7.4,29.90,NW,315,4.3,4.3,61,0.00,,,0.00,WUHU216HW,2013-01-22 10:31:00,
2013-01-22 05:33:00,18.6,7.4,29.90,WNW,293,4.7,4.7,61,0.00,,,0.00,WUHU216HW,2013-01-22 10:33:00,
2013-01-22 05:34:00,18.6,7.4,29.90,WNW,293,4.7,4.7,61,0.00,,,0.00,WUHU216HW,2013-01-22 10:34:00,
2013-01-22 05:36:00,18.8,7.6,29.90,SW,225,4.3,8.5,61,0.00,,,0.00,WUHU216HW,2013-01-22 10:36:00,
2013-01-22 05:38:00,18.8,7.6,29.91,WNW,293,8.3,8.5,61,0.00,,,0.00,WUHU216HW,2013-01-22 10:38:00,
2013-01-22 05:39:00,18.8,7.6,29.91,WNW,293,8.3,8.5,61,0.00,,,0.00,WUHU216HW,2013-01-22 10:39:00,
2013-01-22 05:41:00,18.8,7.6,29.91,NW,315,4.3,8.5,61,0.00,,,0.00,WUHU216HW,2013-01-22 10:41:00,
2013-01-22 05:43:00,18.8,7.6,29.91,NNW,338,5.8,8.5,61,0.00,,,0.00,WUHU216HW,2013-01-22 10:43:00,
2013-01-22 05:44:00,18.8,7.6,29.91,NNW,338,5.8,8.5,61,0.00,,,0.00,WUHU216HW,2013-01-22 10:44:00,
2013-01-22 05:46:00,18.8,8.0,29.91,North,0,5.6,8.3,62,0.00,,,0.00,WUHU216HW,2013-01-22 10:46:00,
2013-01-22 05:49:00,18.8,8.0,29.92,NE,45,4.3,7.4,62,0.00,,,0.00,WUHU216HW,2013-01-22 10:49:00,
2013-01-22 05:51:00,18.8,8.3,29.92,West,270,1.3,7.4,63,0.00,,,0.00,WUHU216HW,2013-01-22 10:51:00,
2013-01-22 05:54:00,18.8,9.0,29.92,NNW,338,3.4,6.0,65,0.00,,,0.00,WUHU216HW,2013-01-22 10:54:00,
2013-01-22 05:55:00,18.8,9.0,29.92,WNW,293,8.5,8.5,65,0.00,,,0.00,WUHU216HW,2013-01-22 10:55:00,
2013-01-22 05:57:00,18.6,8.8,29.92,WNW,293,1.6,8.5,65,0.00,,,0.00,WUHU216HW,2013-01-22 10:57:00,
2013-01-22 05:59:00,18.6,8.8,29.92,North,0,5.1,8.5,65,0.00,,,0.00,WUHU216HW,2013-01-22 10:59:00,
2013-01-22 06:00:00,18.6,8.8,29.92,West,270,4.9,8.5,65,0.00,,,0.00,WUHU216HW,2013-01-22 11:00:00,
2013-01-22 06:02:00,18.6,8.8,29.92,NW,315,4.3,8.5,65,0.00,,,0.00,WUHU216HW,2013-01-22 11:02:00,
2013-01-22 06:04:00,18.4,8.3,29.92,North,0,5.4,8.7,64,0.00,,,0.00,WUHU216HW,2013-01-22 11:04:00,
2013-01-22 06:05:00,18.4,8.3,29.92,North,0,11.0,11.0,64,0.00,,,0.00,WUHU216HW,2013-01-22 11:05:00,
2013-01-22 06:07:00,18.4,7.9,29.92,WNW,293,6.0,11.0,63,0.00,,,0.00,WUHU216HW,2013-01-22 11:07:00,
2013-01-22 06:09:00,18.3,7.9,29.93,North,0,9.2,11.0,63,0.00,,,0.00,WUHU216HW,2013-01-22 11:09:00,
2013-01-22 06:10:00,18.3,7.9,29.93,North,0,9.2,11.0,63,0.00,,,0.00,WUHU216HW,2013-01-22 11:10:00,
2013-01-22 06:12:00,18.1,7.3,29.92,WNW,293,7.6,11.0,62,0.00,,,0.00,WUHU216HW,2013-01-22 11:12:00,
2013-01-22 06:14:00,18.1,7.3,29.93,NNW,338,5.8,11.0,62,0.00,,,0.00,WUHU216HW,2013-01-22 11:14:00,
2013-01-22 06:15:00,18.1,7.3,29.93,NNW,338,5.8,11.0,62,0.00,,,0.00,WUHU216HW,2013-01-22 11:15:00,
2013-01-22 06:17:00,18.1,7.3,29.93,NNW,338,5.4,9.2,62,0.00,,,0.00,WUHU216HW,2013-01-22 11:17:00,
2013-01-22 06:19:00,17.9,7.1,29.93,North,0,2.0,8.3,62,0.00,,,0.00,WUHU216HW,2013-01-22 11:19:00,
2013-01-22 06:20:00,17.9,7.1,29.93,North,0,2.0,8.3,62,0.00,,,0.00,WUHU216HW,2013-01-22 11:20:00,
2013-01-22 06:21:00,17.9,7.1,29.93,North,0,2.7,8.3,62,0.00,,,0.00,WUHU216HW,2013-01-22 11:21:00,
2013-01-22 06:22:00,17.9,7.1,29.93,NNW,338,5.4,8.3,62,0.00,,,0.00,WUHU216HW,2013-01-22 11:22:00,
2013-01-22 06:24:00,17.7,6.9,29.93,WNW,293,2.5,8.3,62,0.00,,,0.00,WUHU216HW,2013-01-22 11:24:00,
2013-01-22 06:25:00,17.7,6.9,29.93,WNW,293,2.5,8.3,62,0.00,,,0.00,WUHU216HW,2013-01-22 11:25:00,
2013-01-22 06:26:00,17.7,6.6,29.93,North,0,2.9,8.3,61,0.00,,,0.00,WUHU216HW,2013-01-22 11:26:00,
2013-01-22 06:27:00,17.7,6.6,29.93,NW,315,4.3,8.3,61,0.00,,,0.00,WUHU216HW,2013-01-22 11:27:00,
2013-01-22 06:29:00,17.5,6.4,29.93,NNW,338,4.7,8.3,61,0.00,,,0.00,WUHU216HW,2013-01-22 11:29:00,
2013-01-22 06:30:00,17.5,6.4,29.93,NW,315,6.7,8.3,61,0.00,,,0.00,WUHU216HW,2013-01-22 11:30:00,
2013-01-22 06:31:00,17.5,6.4,29.93,NW,315,6.7,8.3,61,0.00,,,0.00,WUHU216HW,2013-01-22 11:31:00,
2013-01-22 06:32:00,17.5,6.4,29.93,NW,315,5.1,6.7,61,0.00,,,0.00,WUHU216HW,2013-01-22 11:32:00,
2013-01-22 06:35:00,17.5,6.4,29.93,North,0,4.5,6.7,61,0.00,,,0.00,WUHU216HW,2013-01-22 11:35:00,
2013-01-22 06:36:00,17.5,6.4,29.93,WNW,293,9.2,9.2,61,0.00,,,0.00,WUHU216HW,2013-01-22 11:36:00,
2013-01-22 06:37:00,17.4,5.5,29.93,NNW,338,6.3,9.2,59,0.00,,,0.00,WUHU216HW,2013-01-22 11:37:00,
2013-01-22 06:40:00,17.4,5.5,29.93,WNW,293,6.3,9.2,59,0.00,,,0.00,WUHU216HW,2013-01-22 11:40:00,
2013-01-22 06:41:00,17.4,5.2,29.93,NNW,338,4.0,9.2,58,0.00,,,0.00,WUHU216HW,2013-01-22 11:41:00,
2013-01-22 06:43:00,17.4,5.2,29.93,NNW,338,6.3,9.2,58,0.00,,,0.00,WUHU216HW,2013-01-22 11:43:00,
2013-01-22 06:45:00,17.4,4.8,29.94,North,0,4.9,9.2,57,0.00,,,0.00,WUHU216HW,2013-01-22 11:45:00,
2013-01-22 06:46:00,17.4,4.8,29.94,West,270,6.9,6.9,57,0.00,,,0.00,WUHU216HW,2013-01-22 11:46:00,
2013-01-22 06:48:00,17.4,4.8,29.94,NW,315,15.0,15.0,57,0.00,,,0.00,WUHU216HW,2013-01-22 11:48:00,
2013-01-22 06:50:00,17.4,4.4,29.94,NNW,338,5.8,15.0,56,0.00,,,0.00,WUHU216HW,2013-01-22 11:50:00,
2013-01-22 06:52:00,17.4,4.0,29.94,West,270,5.4,15.0,55,0.00,,,0.00,WUHU216HW,2013-01-22 11:52:00,
2013-01-22 06:53:00,17.4,4.4,29.94,WNW,293,5.1,15.0,56,0.00,,,0.00,WUHU216HW,2013-01-22 11:53:00,
2013-01-22 06:55:00,17.2,3.8,29.94,NW,315,4.5,15.0,55,0.00,,,0.00,WUHU216HW,2013-01-22 11:55:00,
2013-01-22 06:56:00,17.2,3.8,29.94,North,0,3.8,15.0,55,0.00,,,0.00,WUHU216HW,2013-01-22 11:56:00,
2013-01-22 06:57:00,17.2,3.8,29.94,NW,315,4.0,15.0,55,0.00,,,0.00,WUHU216HW,2013-01-22 11:57:00,
2013-01-22 06:58:00,17.2,3.8,29.94,NW,315,4.0,9.8,55,0.00,,,0.00,WUHU216HW,2013-01-22 11:58:00,
2013-01-22 07:01:00,17.2,3.8,29.94,NW,315,3.8,9.8,55,0.00,,,0.00,WUHU216HW,2013-01-22 12:01:00,
2013-01-22 07:02:00,17.0,3.6,29.94,North,0,6.3,9.8,55,0.00,,,0.00,WUHU216HW,2013-01-22 12:02:00,
2013-01-22 07:03:00,17.0,3.6,29.94,NNW,338,6.3,9.8,55,0.00,,,0.00,WUHU216HW,2013-01-22 12:03:00,
2013-01-22 07:06:00,17.0,3.6,29.94,NNW,338,7.8,7.8,55,0.00,,,0.00,WUHU216HW,2013-01-22 12:06:00,
2013-01-22 07:07:00,17.0,3.6,29.94,NNW,338,4.3,7.8,55,0.00,,,0.00,WUHU216HW,2013-01-22 12:07:00,
2013-01-22 07:08:00,17.0,3.2,29.94,NW,315,6.9,7.8,54,0.00,,,0.00,WUHU216HW,2013-01-22 12:08:00,
2013-01-22 07:12:00,16.8,3.0,29.95,NNW,338,4.9,7.8,54,0.00,,,0.00,WUHU216HW,2013-01-22 12:12:00,
2013-01-22 07:13:00,16.8,3.0,29.94,NNW,338,4.3,7.8,54,0.00,,,0.00,WUHU216HW,2013-01-22 12:13:00,
2013-01-22 07:14:00,16.8,3.0,29.94,NW,315,2.5,7.8,54,0.00,,,0.00,WUHU216HW,2013-01-22 12:14:00,
2013-01-22 07:17:00,16.6,2.8,29.95,NNW,338,2.7,6.9,54,0.00,,,0.00,WUHU216HW,2013-01-22 12:17:00,
2013-01-22 07:18:00,16.6,2.8,29.95,NW,315,5.8,6.3,54,0.00,,,0.00,WUHU216HW,2013-01-22 12:18:00,
2013-01-22 07:19:00,16.6,2.8,29.95,North,0,3.4,6.3,54,0.00,,,0.00,WUHU216HW,2013-01-22 12:19:00,
2013-01-22 07:22:00,16.6,2.8,29.95,North,0,3.8,6.3,54,0.00,,,0.00,WUHU216HW,2013-01-22 12:22:00,
2013-01-22 07:23:00,16.6,2.8,29.95,North,0,2.7,6.3,54,0.00,,,0.00,WUHU216HW,2013-01-22 12:23:00,
2013-01-22 07:24:00,16.6,2.8,29.95,NW,315,6.5,6.5,54,0.00,,,0.00,WUHU216HW,2013-01-22 12:24:00,
2013-01-22 07:27:00,16.5,2.3,29.95,North,0,4.0,6.7,53,0.00,,,0.00,WUHU216HW,2013-01-22 12:27:00,
2013-01-22 07:28:00,16.6,2.4,29.95,North,0,4.0,6.7,53,0.00,,,0.00,WUHU216HW,2013-01-22 12:28:00,
2013-01-22 07:30:00,16.5,1.9,29.95,WNW,293,2.5,6.7,52,0.00,,,0.00,WUHU216HW,2013-01-22 12:30:00,
2013-01-22 07:32:00,16.5,2.3,29.95,NNW,338,4.0,6.7,53,0.00,,,0.00,WUHU216HW,2013-01-22 12:32:00,
2013-01-22 07:33:00,16.5,2.3,29.96,NNE,23,3.8,6.7,53,0.00,,,0.00,WUHU216HW,2013-01-22 12:33:00,
2013-01-22 07:35:00,16.5,1.9,29.95,NNE,23,6.3,10.3,52,0.00,,,0.00,WUHU216HW,2013-01-22 12:35:00,
2013-01-22 07:37:00,16.5,1.5,29.96,North,0,3.6,10.3,51,0.00,,,0.00,WUHU216HW,2013-01-22 12:37:00,
2013-01-22 07:38:00,16.5,1.5,29.96,North,0,3.6,10.3,51,0.00,,,0.00,WUHU216HW,2013-01-22 12:38:00,
2013-01-22 07:40:00,16.3,1.3,29.96,NNW,338,5.8,10.3,51,0.00,,,0.00,WUHU216HW,2013-01-22 12:40:00,
2013-01-22 07:43:00,16.3,1.3,29.96,North,0,2.9,10.3,51,0.00,,,0.00,WUHU216HW,2013-01-22 12:43:00,
2013-01-22 07:44:00,16.3,1.3,29.96,NW,315,4.0,6.3,51,0.00,,,0.00,WUHU216HW,2013-01-22 12:44:00,
2013-01-22 07:45:00,16.3,1.3,29.96,WSW,248,3.6,5.8,51,0.00,,,0.00,WUHU216HW,2013-01-22 12:45:00,
2013-01-22 07:47:00,16.3,1.7,29.96,NNW,338,6.3,6.3,52,0.00,,,0.00,WUHU216HW,2013-01-22 12:47:00,
2013-01-22 07:48:00,16.3,1.7,29.96,NNW,338,6.3,6.3,52,0.00,,,0.00,WUHU216HW,2013-01-22 12:48:00,
2013-01-22 07:49:00,16.3,1.3,29.96,WNW,293,3.4,6.3,51,0.00,,,0.00,WUHU216HW,2013-01-22 12:49:00,
2013-01-22 07:51:00,16.3,1.7,29.97,East,90,3.8,6.3,52,0.00,,,0.00,WUHU216HW,2013-01-22 12:51:00,
2013-01-22 07:53:00,16.3,1.3,29.97,WNW,293,5.1,7.4,51,0.00,,,0.00,WUHU216HW,2013-01-22 12:53:00,
2013-01-22 07:54:00,16.3,1.3,29.97,North,0,2.9,7.4,51,0.00,,,0.00,WUHU216HW,2013-01-22 12:54:00,
2013-01-22 07:56:00,16.3,1.7,29.97,WNW,293,2.5,7.4,52,0.00,,,0.00,WUHU216HW,2013-01-22 12:56:00,
2013-01-22 07:58:00,16.3,1.7,29.97,NW,315,5.6,7.4,52,0.00,,,0.00,WUHU216HW,2013-01-22 12:58:00,
2013-01-22 07:59:00,16.3,1.7,29.97,NNW,338,2.2,7.4,52,0.00,,,0.00,WUHU216HW,2013-01-22 12:59:00,
2013-01-22 08:01:00,16.5,2.3,29.97,NNW,338,2.9,7.4,53,0.00,,,0.00,WUHU216HW,2013-01-22 13:01:00,
2013-01-22 08:03:00,16.5,1.9,29.97,West,270,5.1,6.7,52,0.00,,,0.00,WUHU216HW,2013-01-22 13:03:00,
2013-01-22 08:04:00,16.5,2.3,29.97,NNE,23,3.4,6.7,53,0.00,,,0.00,WUHU216HW,2013-01-22 13:04:00,
2013-01-22 08:06:00,16.5,2.3,29.97,North,0,4.0,5.6,53,0.00,,,0.00,WUHU216HW,2013-01-22 13:06:00,
2013-01-22 08:08:00,16.5,2.3,29.97,NNW,338,2.5,5.6,53,0.00,,,0.00,WUHU216HW,2013-01-22 13:08:00,
2013-01-22 08:09:00,16.6,2.4,29.97,NNW,338,6.5,6.5,53,0.00,,,0.00,WUHU216HW,2013-01-22 13:09:00,
2013-01-22 08:10:00,16.6,2.0,29.97,WSW,248,4.9,6.5,52,0.00,,,0.00,WUHU216HW,2013-01-22 13:10:00,
2013-01-22 08:12:00,16.8,2.6,29.97,West,270,6.3,6.5,53,0.00,,,0.00,WUHU216HW,2013-01-22 13:12:00,
2013-01-22 08:13:00,17.0,2.7,29.97,NW,315,6.3,6.5,53,0.00,,,0.00,WUHU216HW,2013-01-22 13:13:00,
2013-01-22 08:15:00,17.2,2.9,29.97,West,270,5.4,6.5,53,0.00,,,0.00,WUHU216HW,2013-01-22 13:15:00,
2013-01-22 08:17:00,17.1,2.5,29.98,North,0,3.4,6.5,52,0.00,,,0.00,WUHU216HW,2013-01-22 13:17:00,
2013-01-22 08:18:00,16.9,2.3,29.98,NW,315,6.9,6.9,52,0.00,,,0.00,WUHU216HW,2013-01-22 13:18:00,
2013-01-22 08:20:00,17.1,2.5,29.98,NW,315,5.6,6.9,52,0.00,,,0.00,WUHU216HW,2013-01-22 13:20:00,
2013-01-22 08:23:00,17.1,2.5,29.98,WNW,293,5.6,6.9,52,0.00,,,0.00,WUHU216HW,2013-01-22 13:23:00,
2013-01-22 08:25:00,16.9,2.3,29.98,WNW,293,10.5,10.5,52,0.00,,,0.00,WUHU216HW,2013-01-22 13:25:00,
2013-01-22 08:28:00,16.9,1.8,29.98,North,0,2.5,10.5,51,0.00,,,0.00,WUHU216HW,2013-01-22 13:28:00,
2013-01-22 08:29:00,16.7,1.6,29.98,SSW,203,6.3,10.5,51,0.00,,,0.00,WUHU216HW,2013-01-22 13:29:00,
2013-01-22 08:30:00,16.7,1.6,29.98,SSW,203,6.3,10.5,51,0.00,,,0.00,WUHU216HW,2013-01-22 13:30:00,
2013-01-22 08:31:00,16.7,2.1,29.98,SSW,203,4.9,10.5,52,0.00,,,0.00,WUHU216HW,2013-01-22 13:31:00,
2013-01-22 08:34:00,16.5,1.4,29.98,NNW,338,8.5,10.5,51,0.00,,,0.00,WUHU216HW,2013-01-22 13:34:00,
2013-01-22 08:35:00,16.5,1.4,29.98,North,0,6.9,8.5,51,0.00,,,0.00,WUHU216HW,2013-01-22 13:35:00,
2013-01-22 08:36:00,16.5,1.4,29.99,North,0,5.4,8.5,51,0.00,,,0.00,WUHU216HW,2013-01-22 13:36:00,
2013-01-22 08:39:00,16.7,1.6,29.99,WNW,293,6.7,8.5,51,0.00,,,0.00,WUHU216HW,2013-01-22 13:39:00,
2013-01-22 08:40:00,16.7,1.6,29.98,NNW,338,4.9,8.5,51,0.00,,,0.00,WUHU216HW,2013-01-22 13:40:00,
2013-01-22 08:42:00,16.7,1.6,29.99,NNW,338,4.0,8.5,51,0.00,,,0.00,WUHU216HW,2013-01-22 13:42:00,
2013-01-22 08:44:00,16.8,1.8,29.99,WNW,293,9.4,9.4,51,0.00,,,0.00,WUHU216HW,2013-01-22 13:44:00,
2013-01-22 08:45:00,16.8,1.8,29.99,WNW,293,9.4,9.4,51,0.00,,,0.00,WUHU216HW,2013-01-22 13:45:00,
2013-01-22 08:47:00,17.0,2.0,29.99,NNW,338,4.3,9.4,51,0.00,,,0.00,WUHU216HW,2013-01-22 13:47:00,
2013-01-22 08:50:00,17.2,2.6,29.99,North,0,5.6,9.4,52,0.00,,,0.00,WUHU216HW,2013-01-22 13:50:00,
2013-01-22 08:52:00,17.2,2.1,29.99,WNW,293,3.4,9.4,51,0.00,,,0.00,WUHU216HW,2013-01-22 13:52:00,
2013-01-22 08:55:00,17.2,2.1,30.00,WNW,293,6.7,7.2,51,0.00,,,0.00,WUHU216HW,2013-01-22 13:55:00,
2013-01-22 08:56:00,17.2,2.1,30.00,SSW,203,5.4,6.7,51,0.00,,,0.00,WUHU216HW,2013-01-22 13:56:00,
2013-01-22 08:57:00,17.3,2.2,30.00,WNW,293,5.1,6.7,51,0.00,,,0.00,WUHU216HW,2013-01-22 13:57:00,
2013-01-22 09:00:00,17.9,3.2,30.00,SW,225,4.7,6.7,52,0.00,,,0.00,WUHU216HW,2013-01-22 14:00:00,
2013-01-22 09:02:00,18.2,3.9,30.00,North,0,5.4,6.7,53,0.00,,,0.00,WUHU216HW,2013-01-22 14:02:00,
2013-01-22 09:05:00,18.8,4.0,30.00,NW,315,2.5,5.4,52,0.00,,,0.00,WUHU216HW,2013-01-22 14:05:00,
2013-01-22 09:07:00,18.8,4.4,30.00,NNW,338,4.0,5.4,53,0.00,,,0.00,WUHU216HW,2013-01-22 14:07:00,
2013-01-22 09:08:00,19.0,4.2,30.00,NW,315,8.5,8.5,52,0.00,,,0.00,WUHU216HW,2013-01-22 14:08:00,
2013-01-22 09:10:00,19.1,3.8,30.00,WNW,293,4.0,8.5,51,0.00,,,0.00,WUHU216HW,2013-01-22 14:10:00,
2013-01-22 09:12:00,19.1,3.8,30.00,NW,315,3.4,8.5,51,0.00,,,0.00,WUHU216HW,2013-01-22 14:12:00,
2013-01-22 09:13:00,19.1,3.8,30.00,NW,315,3.4,8.5,51,0.00,,,0.00,WUHU216HW,2013-01-22 14:13:00,
2013-01-22 09:15:00,19.2,4.0,30.00,WNW,293,6.0,9.2,51,0.00,,,0.00,WUHU216HW,2013-01-22 14:15:00,
2013-01-22 09:17:00,19.2,3.6,30.00,West,270,6.3,9.2,50,0.00,,,0.00,WUHU216HW,2013-01-22 14:17:00,
2013-01-22 09:18:00,19.2,3.6,30.00,West,270,6.3,9.2,50,0.00,,,0.00,WUHU216HW,2013-01-22 14:18:00,
2013-01-22 09:20:00,19.0,3.8,30.01,WNW,293,4.7,9.2,51,0.00,,,0.00,WUHU216HW,2013-01-22 14:20:00,
2013-01-22 09:23:00,19.0,3.8,30.00,West,270,3.4,9.2,51,0.00,,,0.00,WUHU216HW,2013-01-22 14:23:00,
2013-01-22 09:25:00,19.2,4.0,30.00,NW,315,5.4,6.3,51,0.00,,,0.00,WUHU216HW,2013-01-22 14:25:00,
2013-01-22 09:26:00,19.2,4.0,30.00,NW,315,5.4,6.3,51,0.00,,,0.00,WUHU216HW,2013-01-22 14:26:00,
2013-01-22 09:28:00,19.6,4.3,30.01,NW,315,5.4,5.4,51,0.00,,,0.00,WUHU216HW,2013-01-22 14:28:00,
2013-01-22 09:30:00,19.8,4.1,30.01,WNW,293,4.5,5.4,50,0.00,,,0.00,WUHU216HW,2013-01-22 14:30:00,
2013-01-22 09:31:00,19.8,4.1,30.01,WNW,293,4.5,5.4,50,0.00,,,0.00,WUHU216HW,2013-01-22 14:31:00,
2013-01-22 09:33:00,19.8,4.1,30.01,West,270,4.5,5.4,50,0.00,,,0.00,WUHU216HW,2013-01-22 14:33:00,
2013-01-22 09:36:00,19.9,4.6,30.00,NNW,338,4.7,5.4,51,0.00,,,0.00,WUHU216HW,2013-01-22 14:36:00,
2013-01-22 09:38:00,19.9,4.1,30.01,NW,315,4.9,4.9,50,0.00,,,0.00,WUHU216HW,2013-01-22 14:38:00,
2013-01-22 09:41:00,20.3,4.5,30.01,NNW,338,8.5,8.5,50,0.00,,,0.00,WUHU216HW,2013-01-22 14:41:00,
2013-01-22 09:43:00,20.4,4.7,30.01,NNW,338,6.7,9.4,50,0.00,,,0.00,WUHU216HW,2013-01-22 14:43:00,
2013-01-22 09:44:00,20.2,4.0,30.01,NNW,338,8.3,9.4,49,0.00,,,0.00,WUHU216HW,2013-01-22 14:44:00,
2013-01-22 09:46:00,19.8,3.2,30.01,West,270,6.0,9.4,48,0.00,,,0.00,WUHU216HW,2013-01-22 14:46:00,
2013-01-22 09:48:00,19.7,3.1,30.02,NNW,338,6.0,10.7,48,0.00,,,0.00,WUHU216HW,2013-01-22 14:48:00,
2013-01-22 09:49:00,19.5,2.9,30.01,WNW,293,7.6,10.7,48,0.00,,,0.00,WUHU216HW,2013-01-22 14:49:00,
2013-01-22 09:51:00,19.1,2.5,30.02,WNW,293,8.5,10.7,48,0.00,,,0.00,WUHU216HW,2013-01-22 14:51:00,
2013-01-22 09:52:00,19.1,2.5,30.02,WNW,293,5.1,10.7,48,0.00,,,0.00,WUHU216HW,2013-01-22 14:52:00,
2013-01-22 09:53:00,19.1,3.0,30.02,NW,315,4.0,10.7,49,0.00,,,0.00,WUHU216HW,2013-01-22 14:53:00,
2013-01-22 09:54:00,18.9,2.8,30.02,NNW,338,4.0,10.7,49,0.00,,,0.00,WUHU216HW,2013-01-22 14:54:00,
2013-01-22 09:56:00,18.8,2.7,30.02,NNW,338,7.2,8.5,49,0.00,,,0.00,WUHU216HW,2013-01-22 14:56:00,
2013-01-22 09:57:00,18.6,2.5,30.02,West,270,8.9,8.9,49,0.00,,,0.00,WUHU216HW,2013-01-22 14:57:00,
2013-01-22 09:58:00,18.6,2.1,30.02,West,270,6.3,8.9,48,0.00,,,0.00,WUHU216HW,2013-01-22 14:58:00,
2013-01-22 09:59:00,18.6,2.1,30.01,WNW,293,6.7,8.9,48,0.00,,,0.00,WUHU216HW,2013-01-22 14:59:00,
2013-01-22 10:02:00,18.4,1.9,30.02,NW,315,7.6,8.9,48,0.00,,,0.00,WUHU216HW,2013-01-22 15:02:00,
2013-01-22 10:03:00,18.4,1.9,30.02,NNW,338,5.4,8.9,48,0.00,,,0.00,WUHU216HW,2013-01-22 15:03:00,
2013-01-22 10:04:00,18.4,1.9,30.02,NNW,338,4.7,8.9,48,0.00,,,0.00,WUHU216HW,2013-01-22 15:04:00,
2013-01-22 10:07:00,18.4,1.8,30.02,NNE,23,6.3,7.6,48,0.00,,,0.00,WUHU216HW,2013-01-22 15:07:00,
2013-01-22 10:08:00,18.4,2.3,30.02,WNW,293,6.0,7.6,49,0.00,,,0.00,WUHU216HW,2013-01-22 15:08:00,
2013-01-22 10:09:00,18.6,2.5,30.02,North,0,7.4,7.6,49,0.00,,,0.00,WUHU216HW,2013-01-22 15:09:00,
2013-01-22 10:12:00,18.6,2.5,30.02,NW,315,5.8,7.4,49,0.00,,,0.00,WUHU216HW,2013-01-22 15:12:00,
2013-01-22 10:14:00,18.5,2.5,30.02,WNW,293,7.2,9.2,49,0.00,,,0.00,WUHU216HW,2013-01-22 15:14:00,
2013-01-22 10:17:00,18.5,2.5,30.01,NW,315,6.5,9.2,49,0.00,,,0.00,WUHU216HW,2013-01-22 15:17:00,
2013-01-22 10:18:00,18.7,2.6,30.02,North,0,4.7,9.2,49,0.00,,,0.00,WUHU216HW,2013-01-22 15:18:00,
2013-01-22 10:19:00,18.8,2.7,30.01,NW,315,8.5,9.2,49,0.00,,,0.00,WUHU216HW,2013-01-22 15:19:00,
2013-01-22 10:23:00,19.0,2.9,30.01,NNW,338,9.2,9.2,49,0.00,,,0.00,WUHU216HW,2013-01-22 15:23:00,
2013-01-22 10:24:00,19.6,3.5,30.02,WNW,293,7.6,9.2,49,0.00,,,0.00,WUHU216HW,2013-01-22 15:24:00,
2013-01-22 10:25:00,19.6,3.5,30.02,WNW,293,7.6,9.2,49,0.00,,,0.00,WUHU216HW,2013-01-22 15:25:00,
2013-01-22 10:28:00,20.1,3.0,30.02,East,90,5.8,10.5,47,0.00,,,0.00,WUHU216HW,2013-01-22 15:28:00,
2013-01-22 10:29:00,20.6,3.4,30.02,West,270,4.7,10.5,47,0.00,,,0.00,WUHU216HW,2013-01-22 15:29:00,
2013-01-22 10:30:00,20.8,3.6,30.01,WNW,293,7.8,10.5,47,0.00,,,0.00,WUHU216HW,2013-01-22 15:30:00,
2013-01-22 10:33:00,20.8,3.6,30.01,NW,315,3.1,10.5,47,0.00,,,0.00,WUHU216HW,2013-01-22 15:33:00,
2013-01-22 10:35:00,21.2,3.5,30.02,West,270,12.3,12.3,46,0.00,,,0.00,WUHU216HW,2013-01-22 15:35:00,
2013-01-22 10:38:00,20.8,2.6,30.02,North,0,3.8,13.2,45,0.00,,,0.00,WUHU216HW,2013-01-22 15:38:00,
2013-01-22 10:40:00,20.3,2.2,30.02,WNW,293,9.4,13.2,45,0.00,,,0.00,WUHU216HW,2013-01-22 15:40:00,
2013-01-22 10:43:00,19.4,1.8,30.01,NNW,338,4.9,13.2,46,0.00,,,0.00,WUHU216HW,2013-01-22 15:43:00,
2013-01-22 10:44:00,19.4,2.3,30.01,North,0,5.8,13.2,47,0.00,,,0.00,WUHU216HW,2013-01-22 15:44:00,
2013-01-22 10:45:00,19.2,2.1,30.01,West,270,8.1,13.2,47,0.00,,,0.00,WUHU216HW,2013-01-22 15:45:00,
2013-01-22 10:46:00,19.0,1.9,30.02,West,270,6.7,9.4,47,0.00,,,0.00,WUHU216HW,2013-01-22 15:46:00,
2013-01-22 10:48:00,18.7,2.2,30.02,SSW,203,2.5,9.4,48,0.00,,,0.00,WUHU216HW,2013-01-22 15:48:00,
2013-01-22 10:49:00,18.6,2.6,30.02,NW,315,5.6,9.4,49,0.00,,,0.00,WUHU216HW,2013-01-22 15:49:00,
2013-01-22 10:50:00,18.7,2.6,30.01,NNW,338,9.2,9.2,49,0.00,,,0.00,WUHU216HW,2013-01-22 15:50:00,
2013-01-22 10:51:00,18.7,2.6,30.01,NW,315,4.7,9.2,49,0.00,,,0.00,WUHU216HW,2013-01-22 15:51:00,
2013-01-22 10:53:00,18.7,2.6,30.02,NW,315,6.9,9.8,49,0.00,,,0.00,WUHU216HW,2013-01-22 15:53:00,
2013-01-22 10:54:00,18.7,3.1,30.02,WNW,293,12.1,12.1,50,0.00,,,0.00,WUHU216HW,2013-01-22 15:54:00,
2013-01-22 10:55:00,18.7,3.1,30.02,WSW,248,4.0,12.1,50,0.00,,,0.00,WUHU216HW,2013-01-22 15:55:00,
2013-01-22 10:56:00,18.9,3.7,30.02,NNW,338,6.3,12.1,51,0.00,,,0.00,WUHU216HW,2013-01-22 15:56:00,
2013-01-22 10:59:00,19.3,4.1,30.01,NNW,338,6.3,12.1,51,0.00,,,0.00,WUHU216HW,2013-01-22 15:59:00,
2013-01-22 11:00:00,19.3,4.1,30.01,WNW,293,4.0,12.1,51,0.00,,,0.00,WUHU216HW,2013-01-22 16:00:00,
2013-01-22 11:02:00,19.5,4.3,30.01,WNW,293,6.7,12.1,51,0.00,,,0.00,WUHU216HW,2013-01-22 16:02:00,
2013-01-22 11:04:00,18.9,4.1,30.01,SW,225,6.9,8.1,52,0.00,,,0.00,WUHU216HW,2013-01-22 16:04:00,
2013-01-22 11:05:00,18.9,5.0,30.02,West,270,9.8,9.8,54,0.00,,,0.00,WUHU216HW,2013-01-22 16:05:00,
2013-01-22 11:07:00,18.6,5.1,30.02,West,270,8.9,10.5,55,0.00,,,0.00,WUHU216HW,2013-01-22 16:07:00,
2013-01-22 11:09:00,18.2,4.7,30.01,West,270,4.7,10.5,55,0.00,,,0.00,WUHU216HW,2013-01-22 16:09:00,
2013-01-22 11:10:00,18.2,4.7,30.02,NNW,338,4.7,10.5,55,0.00,,,0.00,WUHU216HW,2013-01-22 16:10:00,
2013-01-22 11:12:00,18.2,4.7,30.01,WNW,293,6.7,10.5,55,0.00,,,0.00,WUHU216HW,2013-01-22 16:12:00,
2013-01-22 11:14:00,18.4,5.3,30.01,WNW,293,7.6,10.5,56,0.00,,,0.00,WUHU216HW,2013-01-22 16:14:00,
2013-01-22 11:15:00,18.4,5.3,30.01,WNW,293,7.6,10.5,56,0.00,,,0.00,WUHU216HW,2013-01-22 16:15:00,
2013-01-22 11:17:00,18.2,4.7,30.01,NW,315,10.1,10.1,55,0.00,,,0.00,WUHU216HW,2013-01-22 16:17:00,
2013-01-22 11:20:00,18.0,4.5,30.01,NW,315,6.5,10.1,55,0.00,,,0.00,WUHU216HW,2013-01-22 16:20:00,
2013-01-22 11:21:00,17.8,4.3,30.01,WNW,293,8.3,10.1,55,0.00,,,0.00,WUHU216HW,2013-01-22 16:21:00,
2013-01-22 11:22:00,17.8,4.3,30.01,WNW,293,4.7,10.1,55,0.00,,,0.00,WUHU216HW,2013-01-22 16:22:00,
2013-01-22 11:25:00,17.9,4.5,30.01,NNE,23,4.3,10.1,55,0.00,,,0.00,WUHU216HW,2013-01-22 16:25:00,
2013-01-22 11:26:00,17.9,4.9,30.01,North,0,8.5,10.1,56,0.00,,,0.00,WUHU216HW,2013-01-22 16:26:00,
2013-01-22 11:28:00,17.9,4.9,30.01,NNW,338,9.8,9.8,56,0.00,,,0.00,WUHU216HW,2013-01-22 16:28:00,
2013-01-22 11:30:00,17.7,5.1,30.01,North,0,6.3,9.8,57,0.00,,,0.00,WUHU216HW,2013-01-22 16:30:00,
2013-01-22 11:31:00,17.7,5.1,30.01,NNW,338,2.2,9.8,57,0.00,,,0.00,WUHU216HW,2013-01-22 16:31:00,
2013-01-22 11:33:00,17.2,5.0,30.01,North,0,5.8,9.8,58,0.00,,,0.00,WUHU216HW,2013-01-22 16:33:00,
2013-01-22 11:35:00,17.0,4.8,30.01,NNW,338,1.8,9.8,58,0.00,,,0.00,WUHU216HW,2013-01-22 16:35:00,
2013-01-22 11:37:00,17.0,5.2,30.01,North,0,1.6,9.8,59,0.00,,,0.00,WUHU216HW,2013-01-22 16:37:00,
2013-01-22 11:39:00,17.2,5.0,30.01,WSW,248,5.4,7.6,58,0.00,,,0.00,WUHU216HW,2013-01-22 16:39:00,
2013-01-22 11:40:00,17.4,4.8,30.00,NW,315,3.4,7.6,57,0.00,,,0.00,WUHU216HW,2013-01-22 16:40:00,
2013-01-22 11:42:00,17.4,4.4,30.00,NNW,338,5.1,9.2,56,0.00,,,0.00,WUHU216HW,2013-01-22 16:42:00,
2013-01-22 11:44:00,17.7,4.7,30.00,WNW,293,3.6,9.2,56,0.00,,,0.00,WUHU216HW,2013-01-22 16:44:00,
2013-01-22 11:45:00,18.1,5.0,30.00,NW,315,3.4,9.2,56,0.00,,,0.00,WUHU216HW,2013-01-22 16:45:00,
2013-01-22 11:47:00,18.3,4.8,30.00,WSW,248,4.7,9.2,55,0.00,,,0.00,WUHU216HW,2013-01-22 16:47:00,
2013-01-22 11:49:00,18.8,5.3,30.00,WNW,293,5.8,9.2,55,0.00,,,0.00,WUHU216HW,2013-01-22 16:49:00,
2013-01-22 11:50:00,19.2,5.6,30.00,WNW,293,7.6,9.2,55,0.00,,,0.00,WUHU216HW,2013-01-22 16:50:00,
2013-01-22 11:52:00,19.5,5.1,30.00,West,270,4.9,11.4,53,0.00,,,0.00,WUHU216HW,2013-01-22 16:52:00,
2013-01-22 11:54:00,19.5,4.2,30.00,WSW,248,9.2,11.4,51,0.00,,,0.00,WUHU216HW,2013-01-22 16:54:00,
2013-01-22 11:55:00,19.5,4.2,30.00,NNW,338,10.3,11.4,51,0.00,,,0.00,WUHU216HW,2013-01-22 16:55:00,
2013-01-22 11:56:00,19.5,4.2,30.00,NNW,338,10.3,11.4,51,0.00,,,0.00,WUHU216HW,2013-01-22 16:56:00,
2013-01-22 11:57:00,19.7,4.4,30.00,WNW,293,4.3,11.4,51,0.00,,,0.00,WUHU216HW,2013-01-22 16:57:00,
2013-01-22 11:59:00,20.1,4.3,30.00,WNW,293,8.1,11.4,50,0.00,,,0.00,WUHU216HW,2013-01-22 16:59:00,
2013-01-22 12:00:00,20.1,3.9,30.00,West,270,4.7,11.4,49,0.00,,,0.00,WUHU216HW,2013-01-22 17:00:00,
2013-01-22 12:02:00,20.3,3.6,30.00,West,270,5.4,11.9,48,0.00,,,0.00,WUHU216HW,2013-01-22 17:02:00,
2013-01-22 12:03:00,20.3,3.6,30.00,West,270,5.4,11.9,48,0.00,,,0.00,WUHU216HW,2013-01-22 17:03:00,
2013-01-22 12:04:00,20.4,2.7,30.00,NNW,338,11.4,11.9,46,0.00,,,0.00,WUHU216HW,2013-01-22 17:04:00,
2013-01-22 12:06:00,20.4,2.7,30.00,North,0,4.7,11.9,46,0.00,,,0.00,WUHU216HW,2013-01-22 17:06:00,
2013-01-22 12:08:00,20.6,2.4,29.99,SW,225,4.0,11.9,45,0.00,,,0.00,WUHU216HW,2013-01-22 17:08:00,
2013-01-22 12:09:00,20.9,2.3,29.99,West,270,8.1,12.1,44,0.00,,,0.00,WUHU216HW,2013-01-22 17:09:00,
2013-01-22 12:11:00,20.7,2.1,29.99,SSW,203,5.4,12.1,44,0.00,,,0.00,WUHU216HW,2013-01-22 17:11:00,
2013-01-22 12:13:00,20.9,1.8,29.99,WNW,293,10.1,15.4,43,0.00,,,0.00,WUHU216HW,2013-01-22 17:13:00,
2013-01-22 12:14:00,21.1,1.4,29.99,NNW,338,8.5,15.4,42,0.00,,,0.00,WUHU216HW,2013-01-22 17:14:00,
2013-01-22 12:16:00,21.4,2.2,29.99,West,270,9.2,15.4,43,0.00,,,0.00,WUHU216HW,2013-01-22 17:16:00,
2013-01-22 12:18:00,21.4,1.7,29.99,West,270,13.2,15.4,42,0.00,,,0.00,WUHU216HW,2013-01-22 17:18:00,
2013-01-22 12:19:00,21.6,0.8,29.99,WSW,248,11.9,15.4,40,0.00,,,0.00,WUHU216HW,2013-01-22 17:19:00,
2013-01-22 12:22:00,21.1,0.9,29.99,WNW,293,10.7,14.1,41,0.00,,,0.00,WUHU216HW,2013-01-22 17:22:00,
2013-01-22 12:23:00,21.1,0.9,29.99,WNW,293,10.7,14.1,41,0.00,,,0.00,WUHU216HW,2013-01-22 17:23:00,
2013-01-22 12:24:00,21.1,0.9,29.99,SW,225,4.0,14.1,41,0.00,,,0.00,WUHU216HW,2013-01-22 17:24:00,
2013-01-22 12:27:00,20.9,0.7,29.99,NNW,338,5.6,15.0,41,0.00,,,0.00,WUHU216HW,2013-01-22 17:27:00,
2013-01-22 12:28:00,21.1,0.9,29.98,NNW,338,6.9,15.0,41,0.00,,,0.00,WUHU216HW,2013-01-22 17:28:00,
2013-01-22 12:29:00,21.2,1.5,29.98,North,0,2.9,15.0,42,0.00,,,0.00,WUHU216HW,2013-01-22 17:29:00,
2013-01-22 12:33:00,21.1,0.9,29.98,South,180,8.9,15.0,41,0.00,,,0.00,WUHU216HW,2013-01-22 17:33:00,
2013-01-22 12:34:00,20.9,0.7,29.98,WNW,293,6.5,14.3,41,0.00,,,0.00,WUHU216HW,2013-01-22 17:34:00,
2013-01-22 12:35:00,20.9,0.7,29.98,WNW,293,6.5,14.3,41,0.00,,,0.00,WUHU216HW,2013-01-22 17:35:00,
2013-01-22 12:38:00,20.3,-0.4,29.98,West,270,12.8,12.8,40,0.00,,,0.00,WUHU216HW,2013-01-22 17:38:00,
2013-01-22 12:39:00,20.2,-1.6,29.98,WNW,293,11.2,12.8,38,0.00,,,0.00,WUHU216HW,2013-01-22 17:39:00,
2013-01-22 12:40:00,20.2,-1.6,29.98,WNW,293,11.2,12.8,38,0.00,,,0.00,WUHU216HW,2013-01-22 17:40:00,
2013-01-22 12:44:00,19.6,-2.1,29.98,WNW,293,7.6,12.8,38,0.00,,,0.00,WUHU216HW,2013-01-22 17:44:00,
2013-01-22 12:45:00,19.4,-2.3,29.98,NW,315,5.4,12.8,38,0.00,,,0.00,WUHU216HW,2013-01-22 17:45:00,
2013-01-22 12:49:00,19.6,-1.6,29.98,North,0,4.5,11.2,39,0.00,,,0.00,WUHU216HW,2013-01-22 17:49:00,
2013-01-22 12:50:00,20.0,-1.8,29.98,North,0,7.2,7.8,38,0.00,,,0.00,WUHU216HW,2013-01-22 17:50:00,
2013-01-22 12:54:00,20.2,-1.6,29.98,North,0,5.4,11.9,38,0.00,,,0.00,WUHU216HW,2013-01-22 17:54:00,
2013-01-22 12:55:00,20.2,-1.6,29.98,West,270,9.2,11.9,38,0.00,,,0.00,WUHU216HW,2013-01-22 17:55:00,
2013-01-22 12:56:00,20.2,-1.6,29.98,West,270,9.2,11.9,38,0.00,,,0.00,WUHU216HW,2013-01-22 17:56:00,
2013-01-22 12:59:00,19.6,-3.3,29.99,West,270,8.7,12.1,36,0.00,,,0.00,WUHU216HW,2013-01-22 17:59:00,
2013-01-22 13:00:00,19.4,-4.1,29.98,West,270,4.9,12.1,35,0.00,,,0.00,WUHU216HW,2013-01-22 18:00:00,
2013-01-22 13:01:00,19.3,-3.6,29.99,North,0,5.4,12.1,36,0.00,,,0.00,WUHU216HW,2013-01-22 18:01:00,
2013-01-22 13:04:00,19.1,-3.7,29.98,NNE,23,5.4,12.1,36,0.00,,,0.00,WUHU216HW,2013-01-22 18:04:00,
2013-01-22 13:05:00,19.1,-3.7,29.98,NNE,23,5.4,12.1,36,0.00,,,0.00,WUHU216HW,2013-01-22 18:05:00,
2013-01-22 13:06:00,19.1,-3.8,29.98,West,270,12.5,12.5,36,0.00,,,0.00,WUHU216HW,2013-01-22 18:06:00,
2013-01-22 13:09:00,18.7,-4.1,29.99,WNW,293,6.3,12.5,36,0.00,,,0.00,WUHU216HW,2013-01-22 18:09:00,
2013-01-22 13:10:00,18.7,-4.1,29.99,WNW,293,6.3,12.5,36,0.00,,,0.00,WUHU216HW,2013-01-22 18:10:00,
2013-01-22 13:11:00,18.6,-4.1,29.98,West,270,13.9,13.9,36,0.00,,,0.00,WUHU216HW,2013-01-22 18:11:00,
2013-01-22 13:15:00,18.3,-4.4,29.99,NNW,338,9.4,18.6,36,0.00,,,0.00,WUHU216HW,2013-01-22 18:15:00,
2013-01-22 13:17:00,18.3,-3.8,29.99,West,270,10.5,18.6,37,0.00,,,0.00,WUHU216HW,2013-01-22 18:17:00,
2013-01-22 13:20:00,18.6,-3.5,29.98,NNW,338,6.3,18.6,37,0.00,,,0.00,WUHU216HW,2013-01-22 18:20:00,
2013-01-22 13:22:00,19.0,-3.2,29.98,NNE,23,5.6,18.6,37,0.00,,,0.00,WUHU216HW,2013-01-22 18:22:00,
2013-01-22 13:25:00,19.2,-3.6,29.99,WNW,293,8.9,10.5,36,0.00,,,0.00,WUHU216HW,2013-01-22 18:25:00,
2013-01-22 13:27:00,19.2,-3.6,29.99,WSW,248,4.7,8.9,36,0.00,,,0.00,WUHU216HW,2013-01-22 18:27:00,
2013-01-22 13:30:00,18.8,-4.0,29.99,West,270,10.1,10.1,36,0.00,,,0.00,WUHU216HW,2013-01-22 18:30:00,
2013-01-22 13:31:00,18.8,-4.0,29.99,West,270,10.1,10.1,36,0.00,,,0.00,WUHU216HW,2013-01-22 18:31:00,
2013-01-22 13:32:00,18.6,-4.1,29.99,North,0,7.8,10.1,36,0.00,,,0.00,WUHU216HW,2013-01-22 18:32:00,
2013-01-22 13:35:00,18.3,-4.4,29.99,NNW,338,5.8,10.5,36,0.00,,,0.00,WUHU216HW,2013-01-22 18:35:00,
2013-01-22 13:36:00,18.3,-4.4,29.99,NNW,338,5.8,10.5,36,0.00,,,0.00,WUHU216HW,2013-01-22 18:36:00,
2013-01-22 13:37:00,18.1,-4.6,29.99,NW,315,12.1,12.1,36,0.00,,,0.00,WUHU216HW,2013-01-22 18:37:00,
2013-01-22 13:40:00,17.9,-4.2,29.99,West,270,6.3,12.1,37,0.00,,,0.00,WUHU216HW,2013-01-22 18:40:00,
2013-01-22 13:42:00,17.9,-4.8,29.99,South,180,7.4,12.1,36,0.00,,,0.00,WUHU216HW,2013-01-22 18:42:00,
2013-01-22 13:43:00,17.9,-4.8,29.99,South,180,7.4,12.1,36,0.00,,,0.00,WUHU216HW,2013-01-22 18:43:00,
2013-01-22 13:45:00,18.4,-4.3,29.99,West,270,9.8,12.1,36,0.00,,,0.00,WUHU216HW,2013-01-22 18:45:00,
2013-01-22 13:46:00,18.4,-4.3,29.99,West,270,9.8,12.1,36,0.00,,,0.00,WUHU216HW,2013-01-22 18:46:00,
2013-01-22 13:47:00,18.6,-4.1,29.99,SW,225,2.2,10.7,36,0.00,,,0.00,WUHU216HW,2013-01-22 18:47:00,
2013-01-22 13:48:00,18.6,-4.1,29.99,SW,225,2.2,10.7,36,0.00,,,0.00,WUHU216HW,2013-01-22 18:48:00,
2013-01-22 13:50:00,19.2,-4.2,29.99,NW,315,8.3,11.0,35,0.00,,,0.00,WUHU216HW,2013-01-22 18:50:00,
2013-01-22 13:52:00,19.3,-4.1,29.99,West,270,5.6,12.8,35,0.00,,,0.00,WUHU216HW,2013-01-22 18:52:00,
2013-01-22 13:53:00,19.3,-4.1,29.99,West,270,5.6,12.8,35,0.00,,,0.00,WUHU216HW,2013-01-22 18:53:00,
2013-01-22 13:55:00,19.5,-3.9,29.99,SW,225,4.7,12.8,35,0.00,,,0.00,WUHU216HW,2013-01-22 18:55:00,
2013-01-22 13:58:00,19.7,-3.2,29.99,West,270,7.6,12.8,36,0.00,,,0.00,WUHU216HW,2013-01-22 18:58:00,
2013-01-22 14:00:00,20.1,-2.8,29.99,SW,225,6.3,12.8,36,0.00,,,0.00,WUHU216HW,2013-01-22 19:00:00,
2013-01-22 14:03:00,20.4,-2.5,29.98,NNE,23,5.6,12.8,36,0.00,,,0.00,WUHU216HW,2013-01-22 19:03:00,
2013-01-22 14:06:00,20.6,-2.4,29.98,WSW,248,14.1,14.1,36,0.00,,,0.00,WUHU216HW,2013-01-22 19:06:00,
2013-01-22 14:08:00,20.4,-2.5,29.99,SW,225,8.7,14.1,36,0.00,,,0.00,WUHU216HW,2013-01-22 19:08:00,
2013-01-22 14:11:00,20.6,-2.4,29.99,West,270,6.7,14.1,36,0.00,,,0.00,WUHU216HW,2013-01-22 19:11:00,
2013-01-22 14:13:00,20.6,-3.0,29.99,WNW,293,2.5,14.1,35,0.00,,,0.00,WUHU216HW,2013-01-22 19:13:00,
2013-01-22 14:16:00,20.8,-2.2,29.99,West,270,6.0,9.8,36,0.00,,,0.00,WUHU216HW,2013-01-22 19:16:00,
2013-01-22 14:18:00,21.1,-1.3,29.99,NW,315,7.4,9.2,37,0.00,,,0.00,WUHU216HW,2013-01-22 19:18:00,
2013-01-22 14:19:00,21.1,-2.5,29.99,SW,225,5.8,9.2,35,0.00,,,0.00,WUHU216HW,2013-01-22 19:19:00,
2013-01-22 14:22:00,21.3,-1.7,29.99,North,0,4.9,9.2,36,0.00,,,0.00,WUHU216HW,2013-01-22 19:22:00,
2013-01-22 14:23:00,21.1,-1.9,29.99,West,270,6.3,9.2,36,0.00,,,0.00,WUHU216HW,2013-01-22 19:23:00,
2013-01-22 14:24:00,21.1,-1.9,29.99,West,270,6.3,9.2,36,0.00,,,0.00,WUHU216HW,2013-01-22 19:24:00,
2013-01-22 14:27:00,20.6,-3.6,30.00,NNW,338,6.3,13.9,34,0.00,,,0.00,WUHU216HW,2013-01-22 19:27:00,
2013-01-22 14:28:00,20.1,-4.0,30.00,WNW,293,5.4,13.9,34,0.00,,,0.00,WUHU216HW,2013-01-22 19:28:00,
2013-01-22 14:29:00,20.1,-4.0,30.00,SSW,203,6.3,13.9,34,0.00,,,0.00,WUHU216HW,2013-01-22 19:29:00,
2013-01-22 14:32:00,20.1,-4.0,30.00,NW,315,6.3,15.2,34,0.00,,,0.00,WUHU216HW,2013-01-22 19:32:00,
2013-01-22 14:33:00,20.1,-4.0,30.00,WNW,293,14.1,15.2,34,0.00,,,0.00,WUHU216HW,2013-01-22 19:33:00,
2013-01-22 14:34:00,20.1,-3.4,30.00,WNW,293,9.8,15.2,35,0.00,,,0.00,WUHU216HW,2013-01-22 19:34:00,
2013-01-22 14:37:00,20.1,-3.4,30.00,North,0,9.8,15.2,35,0.00,,,0.00,WUHU216HW,2013-01-22 19:37:00,
2013-01-22 14:38:00,20.1,-3.4,30.00,NW,315,8.5,15.2,35,0.00,,,0.00,WUHU216HW,2013-01-22 19:38:00,
2013-01-22 14:39:00,20.2,-3.3,30.00,West,270,11.9,15.2,35,0.00,,,0.00,WUHU216HW,2013-01-22 19:39:00,
2013-01-22 14:40:00,20.2,-3.3,30.00,West,270,11.9,15.2,35,0.00,,,0.00,WUHU216HW,2013-01-22 19:40:00,
2013-01-22 14:42:00,20.1,-3.4,30.00,NNW,338,10.5,14.1,35,0.00,,,0.00,WUHU216HW,2013-01-22 19:42:00,
2013-01-22 14:43:00,20.1,-3.4,30.00,North,0,8.3,12.8,35,0.00,,,0.00,WUHU216HW,2013-01-22 19:43:00,
2013-01-22 14:45:00,20.1,-3.4,30.00,North,0,7.6,12.8,35,0.00,,,0.00,WUHU216HW,2013-01-22 19:45:00,
2013-01-22 14:47:00,19.5,-4.5,30.00,NW,315,12.5,13.6,34,0.00,,,0.00,WUHU216HW,2013-01-22 19:47:00,
2013-01-22 14:49:00,19.5,-3.9,30.01,WNW,293,6.9,13.6,35,0.00,,,0.00,WUHU216HW,2013-01-22 19:49:00,
2013-01-22 14:50:00,19.5,-3.9,30.01,NW,315,8.1,13.6,35,0.00,,,0.00,WUHU216HW,2013-01-22 19:50:00,
2013-01-22 14:52:00,19.5,-3.9,30.01,West,270,6.0,13.6,35,0.00,,,0.00,WUHU216HW,2013-01-22 19:52:00,
2013-01-22 14:54:00,19.5,-3.9,30.01,West,270,8.3,13.6,35,0.00,,,0.00,WUHU216HW,2013-01-22 19:54:00,
2013-01-22 14:55:00,19.5,-3.3,30.01,North,0,5.6,12.5,36,0.00,,,0.00,WUHU216HW,2013-01-22 19:55:00,
2013-01-22 14:57:00,19.5,-3.3,30.01,NNW,338,4.9,11.2,36,0.00,,,0.00,WUHU216HW,2013-01-22 19:57:00,
2013-01-22 14:59:00,19.3,-3.5,30.01,NNE,23,10.5,11.2,36,0.00,,,0.00,WUHU216HW,2013-01-22 19:59:00,
2013-01-22 15:00:00,19.3,-3.5,30.00,NW,315,9.2,10.5,36,0.00,,,0.00,WUHU216HW,2013-01-22 20:00:00,
2013-01-22 15:03:00,19.3,-4.1,30.01,West,270,7.6,10.5,35,0.00,,,0.00,WUHU216HW,2013-01-22 20:03:00,
2013-01-22 15:04:00,19.9,-3.0,30.00,NW,315,7.8,10.5,36,0.00,,,0.00,WUHU216HW,2013-01-22 20:04:00,
2013-01-22 15:05:00,20.1,-2.8,30.00,NW,315,6.9,10.5,36,0.00,,,0.00,WUHU216HW,2013-01-22 20:05:00,
2013-01-22 15:08:00,20.6,-3.0,30.00,NNW,338,9.4,10.5,35,0.00,,,0.00,WUHU216HW,2013-01-22 20:08:00,
2013-01-22 15:09:00,20.8,-2.2,30.00,NNE,23,10.5,10.5,36,0.00,,,0.00,WUHU216HW,2013-01-22 20:09:00,
2013-01-22 15:10:00,20.8,-2.8,30.00,NNW,338,12.8,12.8,35,0.00,,,0.00,WUHU216HW,2013-01-22 20:10:00,
2013-01-22 15:11:00,20.8,-2.8,30.00,NNW,338,12.8,12.8,35,0.00,,,0.00,WUHU216HW,2013-01-22 20:11:00,
2013-01-22 15:13:00,20.1,-3.4,30.01,NW,315,4.5,12.8,35,0.00,,,0.00,WUHU216HW,2013-01-22 20:13:00,
2013-01-22 15:14:00,19.7,-3.8,30.01,NNW,338,2.9,12.8,35,0.00,,,0.00,WUHU216HW,2013-01-22 20:14:00,
2013-01-22 15:15:00,19.7,-3.2,30.01,North,0,4.7,12.8,36,0.00,,,0.00,WUHU216HW,2013-01-22 20:15:00,
2013-01-22 15:16:00,19.7,-3.2,30.01,North,0,4.7,12.8,36,0.00,,,0.00,WUHU216HW,2013-01-22 20:16:00,
2013-01-22 15:18:00,19.5,-3.3,30.01,NW,315,5.8,12.8,36,0.00,,,0.00,WUHU216HW,2013-01-22 20:18:00,
2013-01-22 15:19:00,19.5,-3.3,30.01,NW,315,4.7,12.8,36,0.00,,,0.00,WUHU216HW,2013-01-22 20:19:00,
2013-01-22 15:21:00,19.3,-3.5,30.01,North,0,5.4,6.9,36,0.00,,,0.00,WUHU216HW,2013-01-22 20:21:00,
2013-01-22 15:23:00,18.6,-4.1,30.01,NW,315,8.5,8.5,36,0.00,,,0.00,WUHU216HW,2013-01-22 20:23:00,
2013-01-22 15:25:00,18.6,-4.1,30.01,NW,315,11.2,11.2,36,0.00,,,0.00,WUHU216HW,2013-01-22 20:25:00,
2013-01-22 15:26:00,18.6,-3.6,30.01,NNW,338,6.7,11.2,37,0.00,,,0.00,WUHU216HW,2013-01-22 20:26:00,
2013-01-22 15:27:00,18.6,-3.6,30.01,NW,315,6.7,11.2,37,0.00,,,0.00,WUHU216HW,2013-01-22 20:27:00,
2013-01-22 15:28:00,18.6,-3.6,30.01,NNW,338,6.5,12.5,37,0.00,,,0.00,WUHU216HW,2013-01-22 20:28:00,
2013-01-22 15:30:00,18.6,-3.0,30.01,NW,315,3.1,12.5,38,0.00,,,0.00,WUHU216HW,2013-01-22 20:30:00,
2013-01-22 15:32:00,18.8,-3.4,30.01,WSW,248,3.8,12.5,37,0.00,,,0.00,WUHU216HW,2013-01-22 20:32:00,
2013-01-22 15:34:00,18.8,-3.4,30.01,North,0,6.9,12.5,37,0.00,,,0.00,WUHU216HW,2013-01-22 20:34:00,
2013-01-22 15:36:00,18.8,-2.8,30.01,WNW,293,13.2,13.2,38,0.00,,,0.00,WUHU216HW,2013-01-22 20:36:00,
2013-01-22 15:37:00,18.8,-3.4,30.02,NNW,338,8.5,13.2,37,0.00,,,0.00,WUHU216HW,2013-01-22 20:37:00,
2013-01-22 15:38:00,18.8,-3.4,30.02,North,0,5.6,13.2,37,0.00,,,0.00,WUHU216HW,2013-01-22 20:38:00,
2013-01-22 15:39:00,18.6,-3.6,30.02,North,0,6.7,13.2,37,0.00,,,0.00,WUHU216HW,2013-01-22 20:39:00,
2013-01-22 15:41:00,18.6,-3.6,30.01,North,0,5.6,13.2,37,0.00,,,0.00,WUHU216HW,2013-01-22 20:41:00,
2013-01-22 15:42:00,18.4,-4.3,30.01,North,0,6.3,13.2,36,0.00,,,0.00,WUHU216HW,2013-01-22 20:42:00,
2013-01-22 15:43:00,18.4,-4.3,30.01,North,0,6.3,13.2,36,0.00,,,0.00,WUHU216HW,2013-01-22 20:43:00,
2013-01-22 15:44:00,18.4,-3.7,30.01,WNW,293,5.4,13.2,37,0.00,,,0.00,WUHU216HW,2013-01-22 20:44:00,
2013-01-22 15:46:00,18.4,-3.7,30.02,NW,315,7.6,8.5,37,0.00,,,0.00,WUHU216HW,2013-01-22 20:46:00,
2013-01-22 15:48:00,18.4,-3.7,30.02,North,0,4.7,7.6,37,0.00,,,0.00,WUHU216HW,2013-01-22 20:48:00,
2013-01-22 15:49:00,18.4,-3.7,30.02,WNW,293,5.4,7.6,37,0.00,,,0.00,WUHU216HW,2013-01-22 20:49:00,
2013-01-22 15:51:00,18.3,-3.8,30.02,West,270,2.5,7.8,37,0.00,,,0.00,WUHU216HW,2013-01-22 20:51:00,
2013-01-22 15:53:00,18.3,-3.8,30.02,WNW,293,5.4,7.8,37,0.00,,,0.00,WUHU216HW,2013-01-22 20:53:00,
2013-01-22 15:54:00,18.3,-3.8,30.02,North,0,2.9,7.8,37,0.00,,,0.00,WUHU216HW,2013-01-22 20:54:00,
2013-01-22 15:56:00,18.3,-3.8,30.02,North,0,6.0,7.8,37,0.00,,,0.00,WUHU216HW,2013-01-22 20:56:00,
2013-01-22 15:58:00,18.2,-4.0,30.02,NNW,338,9.2,9.4,37,0.00,,,0.00,WUHU216HW,2013-01-22 20:58:00,
2013-01-22 15:59:00,18.2,-4.0,30.02,WNW,293,5.8,9.4,37,0.00,,,0.00,WUHU216HW,2013-01-22 20:59:00,
2013-01-22 16:02:00,18.0,-4.2,30.03,North,0,7.4,9.4,37,0.00,,,0.00,WUHU216HW,2013-01-22 21:02:00,
2013-01-22 16:03:00,17.8,-4.3,30.03,NW,315,4.3,9.4,37,0.00,,,0.00,WUHU216HW,2013-01-22 21:03:00,
2013-01-22 16:04:00,17.8,-4.3,30.03,NW,315,4.3,9.4,37,0.00,,,0.00,WUHU216HW,2013-01-22 21:04:00,
2013-01-22 16:07:00,17.6,-4.5,30.03,NNW,338,7.6,9.2,37,0.00,,,0.00,WUHU216HW,2013-01-22 21:07:00,
2013-01-22 16:08:00,17.6,-4.5,30.03,NNW,338,9.4,9.4,37,0.00,,,0.00,WUHU216HW,2013-01-22 21:08:00,
2013-01-22 16:09:00,17.6,-4.5,30.03,NNW,338,9.4,9.4,37,0.00,,,0.00,WUHU216HW,2013-01-22 21:09:00,
2013-01-22 16:12:00,17.6,-4.5,30.03,NNW,338,9.4,9.4,37,0.00,,,0.00,WUHU216HW,2013-01-22 21:12:00,
2013-01-22 16:13:00,17.6,-3.9,30.03,West,270,5.4,9.4,38,0.00,,,0.00,WUHU216HW,2013-01-22 21:13:00,
2013-01-22 16:14:00,17.6,-3.9,30.03,West,270,5.4,9.4,38,0.00,,,0.00,WUHU216HW,2013-01-22 21:14:00,
2013-01-22 16:17:00,17.5,-4.6,30.03,North,0,5.1,9.4,37,0.00,,,0.00,WUHU216HW,2013-01-22 21:17:00,
2013-01-22 16:19:00,17.3,-4.8,30.03,NW,315,8.3,9.4,37,0.00,,,0.00,WUHU216HW,2013-01-22 21:19:00,
2013-01-22 16:22:00,17.3,-4.2,30.03,WNW,293,5.1,9.2,38,0.00,,,0.00,WUHU216HW,2013-01-22 21:22:00,
2013-01-22 16:24:00,17.3,-4.2,30.04,North,0,6.0,8.3,38,0.00,,,0.00,WUHU216HW,2013-01-22 21:24:00,
2013-01-22 16:25:00,17.3,-4.2,30.04,North,0,6.0,8.3,38,0.00,,,0.00,WUHU216HW,2013-01-22 21:25:00,
2013-01-22 16:28:00,17.5,-4.0,30.04,WNW,293,6.7,8.3,38,0.00,,,0.00,WUHU216HW,2013-01-22 21:28:00,
2013-01-22 16:29:00,17.5,-4.0,30.04,NNW,338,7.4,8.7,38,0.00,,,0.00,WUHU216HW,2013-01-22 21:29:00,
2013-01-22 16:30:00,17.5,-4.0,30.04,NNW,338,7.4,8.7,38,0.00,,,0.00,WUHU216HW,2013-01-22 21:30:00,
2013-01-22 16:31:00,17.5,-4.0,30.04,NW,315,2.9,8.7,38,0.00,,,0.00,WUHU216HW,2013-01-22 21:31:00,
2013-01-22 16:33:00,17.5,-4.0,30.05,WNW,293,6.7,8.7,38,0.00,,,0.00,WUHU216HW,2013-01-22 21:33:00,
2013-01-22 16:34:00,17.3,-4.2,30.04,WNW,293,3.4,8.7,38,0.00,,,0.00,WUHU216HW,2013-01-22 21:34:00,
2013-01-22 16:35:00,17.3,-4.2,30.04,North,0,3.6,8.7,38,0.00,,,0.00,WUHU216HW,2013-01-22 21:35:00,
2013-01-22 16:37:00,17.3,-4.2,30.04,West,270,3.8,8.7,38,0.00,,,0.00,WUHU216HW,2013-01-22 21:37:00,
2013-01-22 16:38:00,17.1,-4.4,30.05,WSW,248,3.8,7.4,38,0.00,,,0.00,WUHU216HW,2013-01-22 21:38:00,
2013-01-22 16:40:00,17.1,-4.4,30.05,NNW,338,4.0,6.7,38,0.00,,,0.00,WUHU216HW,2013-01-22 21:40:00,
2013-01-22 16:42:00,17.1,-4.3,30.04,North,0,5.8,5.8,38,0.00,,,0.00,WUHU216HW,2013-01-22 21:42:00,
2013-01-22 16:43:00,17.1,-3.8,30.05,NW,315,2.9,5.8,39,0.00,,,0.00,WUHU216HW,2013-01-22 21:43:00,
2013-01-22 16:45:00,17.1,-3.8,30.05,West,270,3.6,5.8,39,0.00,,,0.00,WUHU216HW,2013-01-22 21:45:00,
2013-01-22 16:46:00,17.1,-3.8,30.05,WNW,293,4.3,5.8,39,0.00,,,0.00,WUHU216HW,2013-01-22 21:46:00,
2013-01-22 16:47:00,17.1,-3.8,30.05,WNW,293,3.4,5.8,39,0.00,,,0.00,WUHU216HW,2013-01-22 21:47:00,
2013-01-22 16:49:00,16.7,-4.1,30.05,West,270,10.1,10.7,39,0.00,,,0.00,WUHU216HW,2013-01-22 21:49:00,
2013-01-22 16:50:00,16.7,-4.1,30.05,NE,45,5.1,10.7,39,0.00,,,0.00,WUHU216HW,2013-01-22 21:50:00,
2013-01-22 16:51:00,16.6,-4.2,30.05,WNW,293,9.2,10.7,39,0.00,,,0.00,WUHU216HW,2013-01-22 21:51:00,
2013-01-22 16:53:00,16.6,-4.2,30.05,NW,315,6.9,10.7,39,0.00,,,0.00,WUHU216HW,2013-01-22 21:53:00,
2013-01-22 16:54:00,16.6,-4.2,30.05,West,270,7.6,10.7,39,0.00,,,0.00,WUHU216HW,2013-01-22 21:54:00,
2013-01-22 16:56:00,16.4,-3.9,30.05,WNW,293,4.9,10.7,40,0.00,,,0.00,WUHU216HW,2013-01-22 21:56:00,
2013-01-22 16:58:00,16.2,-4.0,30.05,WNW,293,7.8,10.1,40,0.00,,,0.00,WUHU216HW,2013-01-22 21:58:00,
2013-01-22 16:59:00,16.3,-4.0,30.06,West,270,7.8,9.2,40,0.00,,,0.00,WUHU216HW,2013-01-22 21:59:00,
2013-01-22 17:01:00,16.1,-4.2,30.06,WSW,248,8.5,10.5,40,0.00,,,0.00,WUHU216HW,2013-01-22 22:01:00,
2013-01-22 17:02:00,16.1,-4.2,30.06,WSW,248,11.2,11.2,40,0.00,,,0.00,WUHU216HW,2013-01-22 22:02:00,
2013-01-22 17:03:00,15.9,-4.4,30.06,South,180,5.1,11.2,40,0.00,,,0.00,WUHU216HW,2013-01-22 22:03:00,
2013-01-22 17:04:00,15.9,-3.9,30.06,WSW,248,9.8,11.2,41,0.00,,,0.00,WUHU216HW,2013-01-22 22:04:00,
2013-01-22 17:06:00,15.9,-4.4,30.06,WSW,248,8.3,11.2,40,0.00,,,0.00,WUHU216HW,2013-01-22 22:06:00,
2013-01-22 17:08:00,15.9,-3.9,30.06,WSW,248,10.5,11.2,41,0.00,,,0.00,WUHU216HW,2013-01-22 22:08:00,
2013-01-22 17:09:00,15.9,-4.4,30.06,SW,225,3.8,11.2,40,0.00,,,0.00,WUHU216HW,2013-01-22 22:09:00,
2013-01-22 17:11:00,15.8,-4.0,30.06,North,0,3.4,11.2,41,0.00,,,0.00,WUHU216HW,2013-01-22 22:11:00,
2013-01-22 17:13:00,15.8,-3.9,30.06,NNW,338,1.6,10.5,41,0.00,,,0.00,WUHU216HW,2013-01-22 22:13:00,
2013-01-22 17:14:00,15.8,-3.9,30.07,WSW,248,11.0,11.0,41,0.00,,,0.00,WUHU216HW,2013-01-22 22:14:00,
2013-01-22 17:17:00,15.6,-4.6,30.07,WNW,293,9.4,12.8,40,0.00,,,0.00,WUHU216HW,2013-01-22 22:17:00,
2013-01-22 17:18:00,15.6,-4.6,30.07,WNW,293,7.4,12.8,40,0.00,,,0.00,WUHU216HW,2013-01-22 22:18:00,
2013-01-22 17:19:00,15.4,-4.8,30.07,WNW,293,9.2,12.8,40,0.00,,,0.00,WUHU216HW,2013-01-22 22:19:00,
2013-01-22 17:22:00,15.4,-4.3,30.07,WSW,248,4.9,12.8,41,0.00,,,0.00,WUHU216HW,2013-01-22 22:22:00,
2013-01-22 17:23:00,15.4,-4.3,30.07,SSW,203,5.4,12.8,41,0.00,,,0.00,WUHU216HW,2013-01-22 22:23:00,
2013-01-22 17:24:00,15.4,-4.3,30.07,WNW,293,3.6,12.8,41,0.00,,,0.00,WUHU216HW,2013-01-22 22:24:00,
2013-01-22 17:27:00,15.2,-4.5,30.07,WNW,293,6.7,9.2,41,0.00,,,0.00,WUHU216HW,2013-01-22 22:27:00,
2013-01-22 17:28:00,15.2,-4.5,30.07,WNW,293,5.4,9.2,41,0.00,,,0.00,WUHU216HW,2013-01-22 22:28:00,
2013-01-22 17:29:00,15.2,-5.0,30.07,NW,315,5.4,6.7,40,0.00,,,0.00,WUHU216HW,2013-01-22 22:29:00,
2013-01-22 17:32:00,15.2,-5.0,30.07,North,0,3.4,6.7,40,0.00,,,0.00,WUHU216HW,2013-01-22 22:32:00,
2013-01-22 17:34:00,15.2,-5.0,30.07,WNW,293,6.3,6.7,40,0.00,,,0.00,WUHU216HW,2013-01-22 22:34:00,
2013-01-22 17:37:00,15.2,-5.0,30.08,North,0,4.5,6.3,40,0.00,,,0.00,WUHU216HW,2013-01-22 22:37:00,
2013-01-22 17:38:00,15.0,-5.1,30.08,NNW,338,3.6,6.3,40,0.00,,,0.00,WUHU216HW,2013-01-22 22:38:00,
2013-01-22 17:39:00,15.0,-5.1,30.08,NNW,338,3.6,6.3,40,0.00,,,0.00,WUHU216HW,2013-01-22 22:39:00,
2013-01-22 17:40:00,15.0,-5.1,30.08,West,270,6.9,6.9,40,0.00,,,0.00,WUHU216HW,2013-01-22 22:40:00,
2013-01-22 17:43:00,15.0,-4.6,30.08,WNW,293,3.8,6.9,41,0.00,,,0.00,WUHU216HW,2013-01-22 22:43:00,
2013-01-22 17:44:00,15.1,-4.6,30.08,West,270,7.6,7.6,41,0.00,,,0.00,WUHU216HW,2013-01-22 22:44:00,
2013-01-22 17:45:00,15.1,-4.6,30.08,NNW,338,1.6,7.6,41,0.00,,,0.00,WUHU216HW,2013-01-22 22:45:00,
2013-01-22 17:48:00,15.0,-4.7,30.08,West,270,5.1,9.8,41,0.00,,,0.00,WUHU216HW,2013-01-22 22:48:00,
2013-01-22 17:49:00,15.0,-4.7,30.09,NW,315,4.7,9.8,41,0.00,,,0.00,WUHU216HW,2013-01-22 22:49:00,
2013-01-22 17:50:00,15.0,-4.7,30.09,North,0,2.5,9.8,41,0.00,,,0.00,WUHU216HW,2013-01-22 22:50:00,
2013-01-22 17:53:00,15.0,-4.7,30.09,North,0,2.5,9.8,41,0.00,,,0.00,WUHU216HW,2013-01-22 22:53:00,
2013-01-22 17:54:00,15.0,-4.7,30.09,West,270,0.4,9.8,41,0.00,,,0.00,WUHU216HW,2013-01-22 22:54:00,
2013-01-22 17:55:00,15.0,-4.7,30.09,North,0,3.1,9.8,41,0.00,,,0.00,WUHU216HW,2013-01-22 22:55:00,
2013-01-22 17:59:00,14.8,-4.8,30.09,West,270,3.8,5.6,41,0.00,,,0.00,WUHU216HW,2013-01-22 22:59:00,
2013-01-22 18:00:00,14.8,-4.8,30.09,WNW,293,4.7,5.6,41,0.00,,,0.00,WUHU216HW,2013-01-22 23:00:00,
2013-01-22 18:04:00,14.6,-5.0,30.09,WNW,293,5.1,5.1,41,0.00,,,0.00,WUHU216HW,2013-01-22 23:04:00,
2013-01-22 18:05:00,14.6,-4.5,30.09,West,270,4.3,5.1,42,0.00,,,0.00,WUHU216HW,2013-01-22 23:05:00,
2013-01-22 18:09:00,14.6,-5.0,30.10,North,0,3.4,9.4,41,0.00,,,0.00,WUHU216HW,2013-01-22 23:09:00,
2013-01-22 18:10:00,14.6,-5.0,30.10,North,0,3.4,9.4,41,0.00,,,0.00,WUHU216HW,2013-01-22 23:10:00,
2013-01-22 18:14:00,14.6,-5.0,30.09,NW,315,9.4,9.4,41,0.00,,,0.00,WUHU216HW,2013-01-22 23:14:00,
2013-01-22 18:15:00,14.6,-5.0,30.09,NW,315,9.4,9.4,41,0.00,,,0.00,WUHU216HW,2013-01-22 23:15:00,
2013-01-22 18:20:00,14.6,-5.5,30.10,NNW,338,8.5,9.4,40,0.00,,,0.00,WUHU216HW,2013-01-22 23:20:00,
2013-01-22 18:21:00,14.7,-5.5,30.10,WNW,293,3.6,9.4,40,0.00,,,0.00,WUHU216HW,2013-01-22 23:21:00,
2013-01-22 18:25:00,14.7,-5.5,30.10,SW,225,3.4,8.7,40,0.00,,,0.00,WUHU216HW,2013-01-22 23:25:00,
2013-01-22 18:26:00,14.7,-5.5,30.10,NNW,338,5.4,8.7,40,0.00,,,0.00,WUHU216HW,2013-01-22 23:26:00,
2013-01-22 18:30:00,14.7,-5.5,30.10,WNW,293,7.4,10.1,40,0.00,,,0.00,WUHU216HW,2013-01-22 23:30:00,
2013-01-22 18:31:00,14.5,-5.6,30.10,SSW,203,6.7,10.1,40,0.00,,,0.00,WUHU216HW,2013-01-22 23:31:00,
2013-01-22 18:35:00,14.5,-5.6,30.10,WNW,293,5.4,10.1,40,0.00,,,0.00,WUHU216HW,2013-01-22 23:35:00,
2013-01-22 18:36:00,14.5,-5.6,30.10,WNW,293,5.4,10.1,40,0.00,,,0.00,WUHU216HW,2013-01-22 23:36:00,
2013-01-22 18:40:00,14.5,-5.1,30.10,NW,315,3.4,8.1,41,0.00,,,0.00,WUHU216HW,2013-01-22 23:40:00,
2013-01-22 18:42:00,14.3,-5.3,30.10,North,0,2.9,8.1,41,0.00,,,0.00,WUHU216HW,2013-01-22 23:42:00,
2013-01-22 18:43:00,14.3,-5.3,30.10,North,0,2.5,8.1,41,0.00,,,0.00,WUHU216HW,2013-01-22 23:43:00,
2013-01-22 18:45:00,14.3,-5.3,30.10,NW,315,8.9,8.9,41,0.00,,,0.00,WUHU216HW,2013-01-22 23:45:00,
2013-01-22 18:47:00,14.2,-5.4,30.10,WNW,293,10.7,10.7,41,0.00,,,0.00,WUHU216HW,2013-01-22 23:47:00,
2013-01-22 18:48:00,14.2,-5.9,30.10,NNE,23,2.5,10.7,40,0.00,,,0.00,WUHU216HW,2013-01-22 23:48:00,
2013-01-22 18:50:00,14.2,-5.3,30.10,NNW,338,3.6,10.7,41,0.00,,,0.00,WUHU216HW,2013-01-22 23:50:00,
2013-01-22 18:52:00,14.2,-5.3,30.10,NNW,338,4.5,10.7,41,0.00,,,0.00,WUHU216HW,2013-01-22 23:52:00,
2013-01-22 18:54:00,14.3,-5.3,30.10,North,0,5.6,10.7,41,0.00,,,0.00,WUHU216HW,2013-01-22 23:54:00,
2013-01-22 18:55:00,14.3,-5.3,30.11,WNW,293,3.1,10.7,41,0.00,,,0.00,WUHU216HW,2013-01-22 23:55:00,
2013-01-22 18:57:00,14.3,-5.3,30.11,NW,315,1.6,5.6,41,0.00,,,0.00,WUHU216HW,2013-01-22 23:57:00,
2013-01-22 18:58:00,14.3,-5.8,30.11,NW,315,5.4,5.6,40,0.00,,,0.00,WUHU216HW,2013-01-22 23:58:00,
2013-01-22 18:59:00,14.3,-5.8,30.11,NW,315,1.8,5.6,40,0.00,,,0.00,WUHU216HW,2013-01-22 23:59:00,
2013-01-22 19:00:00,14.1,-6.0,30.11,WNW,293,2.7,5.6,40,0.00,,,0.00,WUHU216HW,2013-01-23 00:00:00,
2013-01-22 19:02:00,14.1,-6.0,30.11,NNW,338,3.4,5.6,40,0.00,,,0.00,WUHU216HW,2013-01-23 00:02:00,
2013-01-22 19:03:00,14.1,-6.0,30.11,WNW,293,4.3,5.6,40,0.00,,,0.00,WUHU216HW,2013-01-23 00:03:00,
2013-01-22 19:04:00,14.1,-6.0,30.11,WNW,293,5.6,5.6,40,0.00,,,0.00,WUHU216HW,2013-01-23 00:04:00,
2013-01-22 19:05:00,14.1,-6.0,30.11,West,270,4.9,5.6,40,0.00,,,0.00,WUHU216HW,2013-01-23 00:05:00,
2013-01-22 19:07:00,14.1,-6.0,30.11,NW,315,2.0,5.6,40,0.00,,,0.00,WUHU216HW,2013-01-23 00:07:00,
2013-01-22 19:08:00,14.1,-6.0,30.11,NW,315,5.4,5.6,40,0.00,,,0.00,WUHU216HW,2013-01-23 00:08:00,
2013-01-22 19:09:00,14.1,-6.0,30.11,WNW,293,3.1,5.6,40,0.00,,,0.00,WUHU216HW,2013-01-23 00:09:00,
2013-01-22 19:11:00,14.1,-6.0,30.11,WNW,293,1.6,5.6,40,0.00,,,0.00,WUHU216HW,2013-01-23 00:11:00,
2013-01-22 19:12:00,14.1,-6.0,30.11,West,270,2.9,5.6,40,0.00,,,0.00,WUHU216HW,2013-01-23 00:12:00,
2013-01-22 19:13:00,14.1,-6.0,30.11,West,270,2.0,5.6,40,0.00,,,0.00,WUHU216HW,2013-01-23 00:13:00,
2013-01-22 19:15:00,13.9,-5.6,30.11,North,0,2.5,5.6,41,0.00,,,0.00,WUHU216HW,2013-01-23 00:15:00,
2013-01-22 19:17:00,13.9,-5.6,30.11,WSW,248,2.5,5.6,41,0.00,,,0.00,WUHU216HW,2013-01-23 00:17:00,
2013-01-22 19:18:00,13.9,-6.1,30.12,West,270,3.4,6.5,40,0.00,,,0.00,WUHU216HW,2013-01-23 00:18:00,
2013-01-22 19:19:00,13.9,-5.6,30.12,WNW,293,5.1,5.1,41,0.00,,,0.00,WUHU216HW,2013-01-23 00:19:00,
2013-01-22 19:20:00,13.9,-5.6,30.12,WNW,293,5.1,6.5,41,0.00,,,0.00,WUHU216HW,2013-01-23 00:20:00,
2013-01-22 19:22:00,13.9,-5.6,30.12,WNW,293,5.1,6.5,41,0.00,,,0.00,WUHU216HW,2013-01-23 00:22:00,
2013-01-22 19:23:00,13.9,-5.6,30.12,WNW,293,5.1,6.5,41,0.00,,,0.00,WUHU216HW,2013-01-23 00:23:00,
2013-01-22 19:26:00,13.9,-5.6,30.12,WNW,293,5.1,6.5,41,0.00,,,0.00,WUHU216HW,2013-01-23 00:26:00,
2013-01-22 19:27:00,13.9,-5.6,30.12,WNW,293,5.1,6.5,41,0.00,,,0.00,WUHU216HW,2013-01-23 00:27:00,
2013-01-22 19:28:00,13.9,-5.6,30.12,WNW,293,5.1,5.1,41,0.00,,,0.00,WUHU216HW,2013-01-23 00:28:00,
2013-01-22 19:49:00,13.5,-5.0,30.13,NNW,338,2.2,2.2,43,0.00,,,0.00,WUHU216HW,2013-01-23 00:49:00,
2013-01-22 19:54:00,13.6,-4.5,30.13,North,0,4.0,4.0,44,0.00,,,0.00,WUHU216HW,2013-01-23 00:54:00,
2013-01-22 19:55:00,13.6,-4.5,30.13,North,0,4.0,4.0,44,0.00,,,0.00,WUHU216HW,2013-01-23 00:55:00,
2013-01-22 19:59:00,13.6,-4.5,30.13,NNW,338,8.5,8.5,44,0.00,,,0.00,WUHU216HW,2013-01-23 00:59:00,
2013-01-22 20:00:00,13.6,-4.5,30.13,NNW,338,8.5,8.5,44,0.00,,,0.00,WUHU216HW,2013-01-23 01:00:00,
2013-01-22 20:05:00,13.4,-4.1,30.13,NNW,338,2.5,8.5,45,0.00,,,0.00,WUHU216HW,2013-01-23 01:05:00,
2013-01-22 20:10:00,13.4,-4.1,30.13,WNW,293,3.4,5.8,45,0.00,,,0.00,WUHU216HW,2013-01-23 01:10:00,
2013-01-22 20:15:00,13.4,-3.6,30.14,WNW,293,8.5,8.5,46,0.00,,,0.00,WUHU216HW,2013-01-23 01:15:00,
2013-01-22 20:20:00,13.2,-3.3,30.14,NW,315,6.5,8.5,47,0.00,,,0.00,WUHU216HW,2013-01-23 01:20:00,
2013-01-22 20:21:00,13.2,-3.3,30.14,NNW,338,6.3,8.5,47,0.00,,,0.00,WUHU216HW,2013-01-23 01:21:00,
2013-01-22 20:25:00,13.3,-3.3,30.14,WNW,293,6.5,6.9,47,0.00,,,0.00,WUHU216HW,2013-01-23 01:25:00,
2013-01-22 20:26:00,13.3,-3.3,30.14,NW,315,11.9,11.9,47,0.00,,,0.00,WUHU216HW,2013-01-23 01:26:00,
2013-01-22 20:27:00,13.3,-3.3,30.14,WNW,293,4.5,11.9,47,0.00,,,0.00,WUHU216HW,2013-01-23 01:27:00,
2013-01-22 20:30:00,13.1,-3.5,30.14,West,270,10.7,11.9,47,0.00,,,0.00,WUHU216HW,2013-01-23 01:30:00,
2013-01-22 20:32:00,13.1,-3.5,30.14,WNW,293,11.6,11.9,47,0.00,,,0.00,WUHU216HW,2013-01-23 01:32:00,
2013-01-22 20:35:00,13.1,-3.5,30.14,West,270,10.5,19.0,47,0.00,,,0.00,WUHU216HW,2013-01-23 01:35:00,
2013-01-22 20:36:00,13.1,-3.5,30.14,NW,315,5.8,19.0,47,0.00,,,0.00,WUHU216HW,2013-01-23 01:36:00,
2013-01-22 20:37:00,13.1,-3.5,30.14,NW,315,5.8,19.0,47,0.00,,,0.00,WUHU216HW,2013-01-23 01:37:00,
2013-01-22 20:40:00,12.9,-3.6,30.14,WNW,293,11.2,19.0,47,0.00,,,0.00,WUHU216HW,2013-01-23 01:40:00,
2013-01-22 20:42:00,12.9,-3.6,30.14,North,0,2.7,19.0,47,0.00,,,0.00,WUHU216HW,2013-01-23 01:42:00,
2013-01-22 20:45:00,12.9,-3.6,30.14,WNW,293,9.2,11.2,47,0.00,,,0.00,WUHU216HW,2013-01-23 01:45:00,
2013-01-22 20:47:00,12.9,-3.6,30.14,WNW,293,12.5,12.5,47,0.00,,,0.00,WUHU216HW,2013-01-23 01:47:00,
2013-01-22 20:50:00,13.0,-3.6,30.15,West,270,5.4,12.5,47,0.00,,,0.00,WUHU216HW,2013-01-23 01:50:00,
2013-01-22 20:52:00,13.0,-3.6,30.15,WSW,248,9.8,12.5,47,0.00,,,0.00,WUHU216HW,2013-01-23 01:52:00,
2013-01-22 20:53:00,13.0,-3.6,30.15,NW,315,4.0,12.5,47,0.00,,,0.00,WUHU216HW,2013-01-23 01:53:00,
2013-01-22 20:56:00,12.9,-3.7,30.15,North,0,6.0,12.5,47,0.00,,,0.00,WUHU216HW,2013-01-23 01:56:00,
2013-01-22 20:57:00,13.0,-3.6,30.15,West,270,6.0,9.8,47,0.00,,,0.00,WUHU216HW,2013-01-23 01:57:00,
2013-01-22 20:58:00,12.9,-3.2,30.15,WNW,293,8.9,9.8,48,0.00,,,0.00,WUHU216HW,2013-01-23 01:58:00,
2013-01-22 21:01:00,12.9,-3.2,30.15,WSW,248,3.4,9.8,48,0.00,,,0.00,WUHU216HW,2013-01-23 02:01:00,
2013-01-22 21:02:00,12.9,-3.2,30.14,West,270,4.7,8.9,48,0.00,,,0.00,WUHU216HW,2013-01-23 02:02:00,
2013-01-22 21:03:00,12.9,-3.2,30.15,NNW,338,9.2,9.2,48,0.00,,,0.00,WUHU216HW,2013-01-23 02:03:00,
2013-01-22 21:06:00,12.7,-2.9,30.15,WNW,293,5.4,9.2,49,0.00,,,0.00,WUHU216HW,2013-01-23 02:06:00,
2013-01-22 21:07:00,12.7,-2.9,30.15,WNW,293,4.5,9.2,49,0.00,,,0.00,WUHU216HW,2013-01-23 02:07:00,
2013-01-22 21:08:00,12.7,-2.9,30.15,WNW,293,4.5,9.2,49,0.00,,,0.00,WUHU216HW,2013-01-23 02:08:00,
2013-01-22 21:09:00,12.7,-2.9,30.15,NW,315,2.9,9.2,49,0.00,,,0.00,WUHU216HW,2013-01-23 02:09:00,
2013-01-22 21:12:00,12.7,-2.9,30.15,North,0,5.4,9.2,49,0.00,,,0.00,WUHU216HW,2013-01-23 02:12:00,
2013-01-22 21:13:00,12.7,-2.9,30.15,WNW,293,7.6,7.6,49,0.00,,,0.00,WUHU216HW,2013-01-23 02:13:00,
2013-01-22 21:14:00,12.7,-2.9,30.15,WNW,293,3.1,7.6,49,0.00,,,0.00,WUHU216HW,2013-01-23 02:14:00,
2013-01-22 21:17:00,12.7,-2.5,30.15,NNW,338,6.5,7.6,50,0.00,,,0.00,WUHU216HW,2013-01-23 02:17:00,
2013-01-22 21:18:00,12.7,-2.5,30.15,NW,315,4.7,7.6,50,0.00,,,0.00,WUHU216HW,2013-01-23 02:18:00,
2013-01-22 21:19:00,12.7,-2.5,30.15,North,0,4.0,7.6,50,0.00,,,0.00,WUHU216HW,2013-01-23 02:19:00,
2013-01-22 21:22:00,12.7,-2.1,30.15,West,270,6.9,7.6,51,0.00,,,0.00,WUHU216HW,2013-01-23 02:22:00,
2013-01-22 21:23:00,12.7,-2.1,30.15,WNW,293,4.3,7.2,51,0.00,,,0.00,WUHU216HW,2013-01-23 02:23:00,
2013-01-22 21:24:00,12.7,-2.1,30.15,SW,225,3.4,7.2,51,0.00,,,0.00,WUHU216HW,2013-01-23 02:24:00,
2013-01-22 21:27:00,12.7,-2.1,30.15,NNW,338,4.5,6.9,51,0.00,,,0.00,WUHU216HW,2013-01-23 02:27:00,
2013-01-22 21:28:00,12.5,-2.3,30.15,West,270,2.7,6.9,51,0.00,,,0.00,WUHU216HW,2013-01-23 02:28:00,
2013-01-22 21:29:00,12.5,-2.3,30.15,West,270,2.7,6.9,51,0.00,,,0.00,WUHU216HW,2013-01-23 02:29:00,
2013-01-22 21:32:00,12.5,-2.7,30.15,NW,315,1.8,6.9,50,0.00,,,0.00,WUHU216HW,2013-01-23 02:32:00,
2013-01-22 21:33:00,12.5,-2.3,30.15,WNW,293,3.6,6.9,51,0.00,,,0.00,WUHU216HW,2013-01-23 02:33:00,
2013-01-22 21:34:00,12.5,-2.3,30.15,WNW,293,3.6,6.9,51,0.00,,,0.00,WUHU216HW,2013-01-23 02:34:00,
2013-01-22 21:38:00,12.3,-2.9,30.16,SW,225,5.6,11.0,50,0.00,,,0.00,WUHU216HW,2013-01-23 02:38:00,
2013-01-22 21:39:00,12.3,-2.9,30.16,NNW,338,3.6,11.0,50,0.00,,,0.00,WUHU216HW,2013-01-23 02:39:00,
2013-01-22 21:43:00,12.3,-2.9,30.16,NNW,338,2.5,11.0,50,0.00,,,0.00,WUHU216HW,2013-01-23 02:43:00,
2013-01-22 21:44:00,12.3,-2.9,30.16,WNW,293,2.9,11.0,50,0.00,,,0.00,WUHU216HW,2013-01-23 02:44:00,
2013-01-22 21:48:00,12.3,-3.3,30.16,NNW,338,2.5,6.5,49,0.00,,,0.00,WUHU216HW,2013-01-23 02:48:00,
2013-01-22 21:49:00,12.3,-3.8,30.16,West,270,8.9,8.9,48,0.00,,,0.00,WUHU216HW,2013-01-23 02:49:00,
2013-01-22 21:53:00,12.1,-4.4,30.16,NW,315,5.4,8.9,47,0.00,,,0.00,WUHU216HW,2013-01-23 02:53:00,
2013-01-22 21:54:00,12.1,-4.4,30.16,NNW,338,6.9,8.9,47,0.00,,,0.00,WUHU216HW,2013-01-23 02:54:00,
2013-01-22 21:55:00,12.1,-4.4,30.16,WNW,293,3.4,8.9,47,0.00,,,0.00,WUHU216HW,2013-01-23 02:55:00,
2013-01-22 21:58:00,12.1,-4.4,30.16,West,270,1.8,8.9,47,0.00,,,0.00,WUHU216HW,2013-01-23 02:58:00,
2013-01-22 21:59:00,12.0,-4.5,30.16,WNW,293,2.0,7.6,47,0.00,,,0.00,WUHU216HW,2013-01-23 02:59:00,
2013-01-22 22:00:00,12.0,-4.5,30.16,WSW,248,4.7,7.6,47,0.00,,,0.00,WUHU216HW,2013-01-23 03:00:00,
2013-01-22 22:03:00,12.0,-4.9,30.16,NNW,338,1.8,7.6,46,0.00,,,0.00,WUHU216HW,2013-01-23 03:03:00,
2013-01-22 22:04:00,11.8,-5.1,30.16,NNW,338,1.8,7.6,46,0.00,,,0.00,WUHU216HW,2013-01-23 03:04:00,
2013-01-22 22:05:00,11.8,-5.1,30.16,NNW,338,1.8,7.6,46,0.00,,,0.00,WUHU216HW,2013-01-23 03:05:00,
2013-01-22 22:09:00,11.8,-5.1,30.16,North,0,5.4,7.2,46,0.00,,,0.00,WUHU216HW,2013-01-23 03:09:00,
2013-01-22 22:10:00,11.8,-5.6,30.16,WNW,293,9.2,9.2,45,0.00,,,0.00,WUHU216HW,2013-01-23 03:10:00,
2013-01-22 22:14:00,11.6,-5.8,30.16,WNW,293,6.9,9.2,45,0.00,,,0.00,WUHU216HW,2013-01-23 03:14:00,
2013-01-22 22:15:00,11.6,-6.3,30.16,North,0,4.9,9.2,44,0.00,,,0.00,WUHU216HW,2013-01-23 03:15:00,
2013-01-22 22:19:00,11.6,-6.7,30.17,NW,315,10.3,10.3,43,0.00,,,0.00,WUHU216HW,2013-01-23 03:19:00,
2013-01-22 22:20:00,11.6,-7.2,30.17,NW,315,7.6,10.3,42,0.00,,,0.00,WUHU216HW,2013-01-23 03:20:00,
2013-01-22 22:24:00,11.6,-7.2,30.17,West,270,5.8,10.3,42,0.00,,,0.00,WUHU216HW,2013-01-23 03:24:00,
2013-01-22 22:25:00,11.6,-7.2,30.17,NNW,338,3.4,10.3,42,0.00,,,0.00,WUHU216HW,2013-01-23 03:25:00,
2013-01-22 22:29:00,11.6,-6.7,30.17,WNW,293,3.4,7.2,43,0.00,,,0.00,WUHU216HW,2013-01-23 03:29:00,
2013-01-22 22:30:00,11.6,-6.7,30.17,WNW,293,3.4,7.2,43,0.00,,,0.00,WUHU216HW,2013-01-23 03:30:00,
2013-01-22 22:31:00,11.6,-6.7,30.17,WNW,293,3.4,7.2,43,0.00,,,0.00,WUHU216HW,2013-01-23 03:31:00,
2013-01-22 22:32:00,11.6,-6.7,30.17,WNW,293,3.4,6.3,43,0.00,,,0.00,WUHU216HW,2013-01-23 03:32:00,
2013-01-22 22:34:00,11.4,-6.9,30.17,North,0,4.5,4.7,43,0.00,,,0.00,WUHU216HW,2013-01-23 03:34:00,
2013-01-22 22:36:00,11.4,-6.9,30.17,NNW,338,4.7,5.1,43,0.00,,,0.00,WUHU216HW,2013-01-23 03:36:00,
2013-01-22 22:37:00,11.4,-6.9,30.17,NNW,338,2.7,5.1,43,0.00,,,0.00,WUHU216HW,2013-01-23 03:37:00,
2013-01-22 22:39:00,11.4,-6.9,30.17,WNW,293,4.9,5.1,43,0.00,,,0.00,WUHU216HW,2013-01-23 03:39:00,
2013-01-22 22:41:00,11.2,-7.1,30.17,NW,315,5.6,5.6,43,0.00,,,0.00,WUHU216HW,2013-01-23 03:41:00,
2013-01-22 22:42:00,11.2,-7.1,30.17,WNW,293,4.0,5.6,43,0.00,,,0.00,WUHU216HW,2013-01-23 03:42:00,
2013-01-22 22:44:00,11.2,-7.1,30.17,West,270,6.7,6.7,43,0.00,,,0.00,WUHU216HW,2013-01-23 03:44:00,
2013-01-22 22:46:00,11.2,-7.1,30.17,NW,315,3.6,9.8,43,0.00,,,0.00,WUHU216HW,2013-01-23 03:46:00,
2013-01-22 22:48:00,11.2,-7.6,30.17,West,270,1.6,9.8,42,0.00,,,0.00,WUHU216HW,2013-01-23 03:48:00,
2013-01-22 22:49:00,11.2,-7.1,30.17,NNW,338,3.4,9.8,43,0.00,,,0.00,WUHU216HW,2013-01-23 03:49:00,
2013-01-22 22:51:00,11.2,-7.1,30.17,NNW,338,2.9,9.8,43,0.00,,,0.00,WUHU216HW,2013-01-23 03:51:00,
2013-01-22 22:53:00,11.2,-7.1,30.17,NNW,338,3.4,9.8,43,0.00,,,0.00,WUHU216HW,2013-01-23 03:53:00,
2013-01-22 22:55:00,11.1,-7.2,30.17,WSW,248,3.4,4.0,43,0.00,,,0.00,WUHU216HW,2013-01-23 03:55:00,
2013-01-22 22:57:00,11.1,-7.2,30.17,WNW,293,4.7,4.7,43,0.00,,,0.00,WUHU216HW,2013-01-23 03:57:00,
2013-01-22 22:58:00,11.1,-7.2,30.17,NNW,338,3.4,4.7,43,0.00,,,0.00,WUHU216HW,2013-01-23 03:58:00,
2013-01-22 23:00:00,11.1,-7.2,30.17,WNW,293,4.5,4.7,43,0.00,,,0.00,WUHU216HW,2013-01-23 04:00:00,
2013-01-22 23:02:00,11.1,-7.2,30.17,NNW,338,3.1,4.7,43,0.00,,,0.00,WUHU216HW,2013-01-23 04:02:00,
2013-01-22 23:03:00,10.9,-7.4,30.17,NNW,338,2.2,4.7,43,0.00,,,0.00,WUHU216HW,2013-01-23 04:03:00,
2013-01-22 23:05:00,10.9,-7.4,30.17,West,270,4.0,4.7,43,0.00,,,0.00,WUHU216HW,2013-01-23 04:05:00,
2013-01-22 23:07:00,10.9,-7.4,30.17,WNW,293,8.1,8.1,43,0.00,,,0.00,WUHU216HW,2013-01-23 04:07:00,
2013-01-22 23:08:00,10.9,-7.4,30.17,NW,315,2.7,8.1,43,0.00,,,0.00,WUHU216HW,2013-01-23 04:08:00,
2013-01-22 23:10:00,10.9,-6.9,30.17,West,270,2.5,8.1,44,0.00,,,0.00,WUHU216HW,2013-01-23 04:10:00,
2013-01-22 23:12:00,10.9,-6.9,30.17,WNW,293,7.2,8.1,44,0.00,,,0.00,WUHU216HW,2013-01-23 04:12:00,
2013-01-22 23:13:00,10.9,-6.9,30.17,NW,315,5.6,8.1,44,0.00,,,0.00,WUHU216HW,2013-01-23 04:13:00,
2013-01-22 23:15:00,10.9,-7.4,30.17,WNW,293,4.7,8.1,43,0.00,,,0.00,WUHU216HW,2013-01-23 04:15:00,
2013-01-22 23:17:00,10.9,-7.4,30.17,NNW,338,4.0,7.2,43,0.00,,,0.00,WUHU216HW,2013-01-23 04:17:00,
2013-01-22 23:18:00,10.9,-7.4,30.17,NNW,338,4.0,7.2,43,0.00,,,0.00,WUHU216HW,2013-01-23 04:18:00,
2013-01-22 23:20:00,10.9,-6.9,30.17,NW,315,3.8,7.2,44,0.00,,,0.00,WUHU216HW,2013-01-23 04:20:00,
2013-01-22 23:22:00,10.9,-6.9,30.17,NW,315,4.0,5.6,44,0.00,,,0.00,WUHU216HW,2013-01-23 04:22:00,
2013-01-22 23:23:00,10.9,-6.9,30.17,NW,315,4.0,5.6,44,0.00,,,0.00,WUHU216HW,2013-01-23 04:23:00,
2013-01-22 23:25:00,10.9,-6.9,30.17,WNW,293,5.1,6.3,44,0.00,,,0.00,WUHU216HW,2013-01-23 04:25:00,
2013-01-22 23:27:00,10.7,-7.1,30.16,WSW,248,3.1,7.2,44,0.00,,,0.00,WUHU216HW,2013-01-23 04:27:00,
2013-01-22 23:28:00,10.7,-7.1,30.16,WSW,248,3.1,7.2,44,0.00,,,0.00,WUHU216HW,2013-01-23 04:28:00,
2013-01-22 23:29:00,10.7,-7.1,30.17,North,0,4.7,7.2,44,0.00,,,0.00,WUHU216HW,2013-01-23 04:29:00,
2013-01-22 23:30:00,10.9,-6.9,30.17,West,270,7.6,7.6,44,0.00,,,0.00,WUHU216HW,2013-01-23 04:30:00,
2013-01-22 23:32:00,10.7,-7.1,30.17,West,270,9.8,9.8,44,0.00,,,0.00,WUHU216HW,2013-01-23 04:32:00,
2013-01-22 23:33:00,10.7,-7.1,30.16,West,270,9.8,9.8,44,0.00,,,0.00,WUHU216HW,2013-01-23 04:33:00,
2013-01-22 23:34:00,10.7,-7.1,30.16,West,270,9.8,9.8,44,0.00,,,0.00,WUHU216HW,2013-01-23 04:34:00,
2013-01-22 23:35:00,10.7,-7.1,30.16,North,0,1.8,9.8,44,0.00,,,0.00,WUHU216HW,2013-01-23 04:35:00,
2013-01-22 23:37:00,10.7,-7.1,30.16,NNW,338,4.0,9.8,44,0.00,,,0.00,WUHU216HW,2013-01-23 04:37:00,
2013-01-22 23:38:00,10.7,-6.6,30.16,WSW,248,2.7,9.8,45,0.00,,,0.00,WUHU216HW,2013-01-23 04:38:00,
2013-01-22 23:39:00,10.7,-6.6,30.16,WSW,248,2.7,9.8,45,0.00,,,0.00,WUHU216HW,2013-01-23 04:39:00,
2013-01-22 23:40:00,10.7,-6.6,30.16,SW,225,10.1,10.1,45,0.00,,,0.00,WUHU216HW,2013-01-23 04:40:00,
2013-01-22 23:43:00,10.7,-7.1,30.15,WNW,293,8.5,10.1,44,0.00,,,0.00,WUHU216HW,2013-01-23 04:43:00,
2013-01-22 23:44:00,10.5,-7.3,30.15,WNW,293,4.9,10.1,44,0.00,,,0.00,WUHU216HW,2013-01-23 04:44:00,
2013-01-22 23:45:00,10.5,-7.3,30.15,West,270,5.4,10.1,44,0.00,,,0.00,WUHU216HW,2013-01-23 04:45:00,
2013-01-22 23:48:00,10.5,-6.8,30.15,West,270,3.6,10.1,45,0.00,,,0.00,WUHU216HW,2013-01-23 04:48:00,
2013-01-22 23:49:00,10.5,-6.8,30.15,West,270,3.4,10.1,45,0.00,,,0.00,WUHU216HW,2013-01-23 04:49:00,
2013-01-22 23:50:00,10.5,-6.8,30.15,WNW,293,4.7,8.5,45,0.00,,,0.00,WUHU216HW,2013-01-23 04:50:00,
2013-01-22 23:53:00,10.5,-6.8,30.15,West,270,3.8,5.4,45,0.00,,,0.00,WUHU216HW,2013-01-23 04:53:00,
2013-01-22 23:54:00,10.5,-6.8,30.15,WSW,248,1.6,5.4,45,0.00,,,0.00,WUHU216HW,2013-01-23 04:54:00,
2013-01-22 23:56:00,10.3,-7.0,30.16,WSW,248,2.7,7.6,45,0.00,,,0.00,WUHU216HW,2013-01-23 04:56:00,
2013-01-22 23:58:00,10.3,-7.0,30.15,WSW,248,2.7,7.6,45,0.00,,,0.00,WUHU216HW,2013-01-23 04:58:00,
2013-01-22 23:59:00,10.3,-6.5,30.15,WNW,293,3.4,7.6,46,0.00,,,0.00,WUHU216HW,2013-01-23 04:59:00,